CW3077 Weather Reports


Display with metric or nautical units.
time (UTC)temp
F
wind
direction
speed
MPH
gust
MPH
rain 1hr
in
rain 24hr
in
rain mn
in
humidity
%
barometer
mb
20190318162401 63 113 4.0 8.0 0.00 0.00 0.00 37 1027.4
20190318162301 63 114 2.0 8.0 0.00 0.00 0.00 36 1027.4
20190318162202 63 81 7.0 8.0 0.00 0.00 0.00 34 1027.4
20190318162101 63 83 4.0 8.0 0.00 0.00 0.00 33 1027.4
20190318162002 63 110 8.0 13.0 0.00 0.00 0.00 34 1027.4
20190318161902 63 90 9.0 13.0 0.00 0.00 0.00 34 1027.4
20190318161801 63 115 7.0 10.0 0.00 0.00 0.00 37 1027.4
20190318161701 63 80 7.0 10.0 0.00 0.00 0.00 36 1027.4
20190318161601 63 80 7.0 10.0 0.00 0.00 0.00 36 1027.4
20190318161501 63 93 7.0 10.0 0.00 0.00 0.00 36 1027.4
20190318161401 63 115 5.0 10.0 0.00 0.00 0.00 36 1027.4
20190318161301 63 96 9.0 10.0 0.00 0.00 0.00 37 1027.4
20190318161201 63 108 9.0 9.0 0.00 0.00 0.00 38 1027.4
20190318161101 62 69 3.0 5.0 0.00 0.00 0.00 37 1027.4
20190318161001 62 125 4.0 9.0 0.00 0.00 0.00 37 1027.4
20190318160901 62 108 4.0 9.0 0.00 0.00 0.00 37 1027.4
20190318160801 62 91 0.0 9.0 0.00 0.00 0.00 38 1027.4
20190318160701 61 92 2.0 9.0 0.00 0.00 0.00 37 1027.4
20190318160601 61 62 4.0 9.0 0.00 0.00 0.00 38 1027.4
20190318160501 61 60 1.0 9.0 0.00 0.00 0.00 38 1027.4
20190318160400 61 51 5.0 9.0 0.00 0.00 0.00 37 1027.4
20190318160301 61 25 6.0 9.0 0.00 0.00 0.00 38 1027.4
20190318160203 61 53 4.0 9.0 0.00 0.00 0.00 37 1027.4
20190318160101 61 61 3.0 9.0 0.00 0.00 0.00 38 1027.4
20190318160001 61 79 7.0 10.0 0.00 0.00 0.00 39 1027.4
20190318155902 61 104 4.0 8.0 0.00 0.00 0.00 38 1027.4
20190318155803 61 115 4.0 7.0 0.00 0.00 0.00 40 1027.4
20190318155701 61 89 2.0 4.0 0.00 0.00 0.00 40 1027.4
20190318155601 60 92 3.0 4.0 0.00 0.00 0.00 39 1027.4
20190318155501 60 92 1.0 4.0 0.00 0.00 0.00 39 1027.4
20190318155401 60 89 3.0 3.0 0.00 0.00 0.00 41 1027.4
20190318155301 60 89 1.0 2.0 0.00 0.00 0.00 41 1027.4
20190318155201 60 90 1.0 1.0 0.00 0.00 0.00 41 1027.4
20190318155101 60 90 0.0 0.0 0.00 0.00 0.00 39 1027.4
20190318155000 60 87 0.0 7.0 0.00 0.00 0.00 39 1027.4
20190318154901 60 89 3.0 7.0 0.00 0.00 0.00 39 1027.4
20190318154801 60 85 2.0 7.0 0.00 0.00 0.00 40 1027.4
20190318154701 60 80 4.0 7.0 0.00 0.00 0.00 39 1027.4
20190318154602 60 78 2.0 7.0 0.00 0.00 0.00 39 1027.4
20190318154501 60 85 1.0 7.0 0.00 0.00 0.00 39 1027.4
20190318154401 60 85 4.0 7.0 0.00 0.00 0.00 39 1027.4
20190318154301 60 156 3.0 3.0 0.00 0.00 0.00 41 1027.4
20190318154201 59 163 0.0 3.0 0.00 0.00 0.00 42 1027.4
20190318154101 59 163 0.0 3.0 0.00 0.00 0.00 40 1027.4
20190318154001 60 83 0.0 4.0 0.00 0.00 0.00 40 1027.4
20190318153901 60 83 2.0 4.0 0.00 0.00 0.00 41 1027.4
20190318153801 59 97 4.0 4.0 0.00 0.00 0.00 41 1027.4
20190318153701 59 107 2.0 4.0 0.00 0.00 0.00 42 1027.4
20190318153600 59 48 0.0 4.0 0.00 0.00 0.00 44 1027.4
20190318153501 59 48 2.0 4.0 0.00 0.00 0.00 44 1027.4
20190318153401 59 48 2.0 4.0 0.00 0.00 0.00 43 1027.4
20190318153300 59 48 0.0 4.0 0.00 0.00 0.00 43 1027.4
20190318153201 59 48 2.0 4.0 0.00 0.00 0.00 47 1027.4
20190318153100 59 50 3.0 4.0 0.00 0.00 0.00 47 1027.4
20190318153000 59 50 0.0 4.0 0.00 0.00 0.00 47 1027.4
20190318152901 59 50 0.0 4.0 0.00 0.00 0.00 45 1027.4
20190318152802 59 50 0.0 4.0 0.00 0.00 0.00 45 1027.4
20190318152701 59 50 0.0 4.0 0.00 0.00 0.00 46 1027.4
20190318152601 58 50 0.0 4.0 0.00 0.00 0.00 48 1027.4
20190318152503 58 37 0.0 3.0 0.00 0.00 0.00 49 1027.4
20190318152401 58 37 0.0 3.0 0.00 0.00 0.00 51 1027.4
20190318152302 58 37 0.0 3.0 0.00 0.00 0.00 51 1027.4
20190318152201 58 37 0.0 3.0 0.00 0.00 0.00 51 1027.4
20190318152101 57 37 0.0 3.0 0.00 0.00 0.00 51 1027.4
20190318152001 57 37 3.0 4.0 0.00 0.00 0.00 50 1027.4
20190318151901 57 37 0.0 4.0 0.00 0.00 0.00 50 1027.4
20190318151801 57 37 0.0 4.0 0.00 0.00 0.00 52 1027.4
20190318151701 57 37 0.0 4.0 0.00 0.00 0.00 51 1027.4
20190318151600 57 37 2.0 4.0 0.00 0.00 0.00 52 1027.4
20190318151501 56 37 2.0 4.0 0.00 0.00 0.00 52 1027.4
20190318151400 56 37 3.0 3.0 0.00 0.00 0.00 53 1027.4
20190318151300 56 37 0.0 1.0 0.00 0.00 0.00 53 1027.4
20190318151200 56 37 0.0 1.0 0.00 0.00 0.00 53 1027.4
20190318151100 56 38 0.0 0.0 0.00 0.00 0.00 52 1027.1
20190318151000 56 37 0.0 4.0 0.00 0.00 0.00 53 1027.1
20190318150901 56 37 0.0 4.0 0.00 0.00 0.00 54 1027.1
20190318150801 55 37 1.0 4.0 0.00 0.00 0.00 55 1027.4
20190318150701 55 37 0.0 4.0 0.00 0.00 0.00 54 1027.4
20190318150601 55 37 0.0 4.0 0.00 0.00 0.00 55 1027.1
20190318150501 55 37 0.0 4.0 0.00 0.00 0.00 54 1027.1
20190318150404 55 37 0.0 4.0 0.00 0.00 0.00 54 1027.1
20190318150301 55 37 3.0 4.0 0.00 0.00 0.00 55 1027.1
20190318150201 55 37 0.0 3.0 0.00 0.00 0.00 55 1027.1
20190318150101 55 37 3.0 3.0 0.00 0.00 0.00 56 1027.1
20190318150000 55 38 0.0 3.0 0.00 0.00 0.00 58 1027.1
20190318145901 55 38 2.0 3.0 0.00 0.00 0.00 57 1027.1
20190318145801 55 37 0.0 3.0 0.00 0.00 0.00 57 1027.1
20190318145700 54 33 1.0 3.0 0.00 0.00 0.00 58 1027.1
20190318145601 54 31 3.0 3.0 0.00 0.00 0.00 62 1027.1
20190318145500 54 31 0.0 3.0 0.00 0.00 0.00 62 1027.1
20190318145401 54 31 1.0 3.0 0.00 0.00 0.00 62 1027.1
20190318145302 54 31 0.0 3.0 0.00 0.00 0.00 62 1027.1
20190318145201 54 31 2.0 3.0 0.00 0.00 0.00 64 1027.1
20190318145101 54 53 2.0 3.0 0.00 0.00 0.00 65 1027.1
20190318145002 53 52 0.0 3.0 0.00 0.00 0.00 66 1027.1
20190318144901 53 52 0.0 3.0 0.00 0.00 0.00 65 1027.1
20190318144802 53 52 0.0 3.0 0.00 0.00 0.00 66 1027.1
20190318144701 53 52 0.0 3.0 0.00 0.00 0.00 66 1027.1
20190318144603 53 52 0.0 3.0 0.00 0.00 0.00 66 1027.1
20190318144501 52 52 0.0 3.0 0.00 0.00 0.00 67 1027.1
20190318144401 52 52 0.0 3.0 0.00 0.00 0.00 67 1027.1
20190318144301 52 52 0.0 3.0 0.00 0.00 0.00 67 1027.1
20190318144201 52 52 0.0 3.0 0.00 0.00 0.00 68 1027.1
20190318144101 52 52 1.0 3.0 0.00 0.00 0.00 68 1027.1
20190318144002 52 52 3.0 3.0 0.00 0.00 0.00 69 1027.1
20190318143901 52 31 1.0 1.0 0.00 0.00 0.00 70 1027.1
20190318143800 52 330 0.0 1.0 0.00 0.00 0.00 70 1027.1
20190318143700 51 330 0.0 1.0 0.00 0.00 0.00 70 1027.1
20190318143601 51 330 0.0 1.0 0.00 0.00 0.00 70 1027.1
20190318143502 51 329 0.0 1.0 0.00 0.00 0.00 71 1027.1
20190318143401 51 329 0.0 1.0 0.00 0.00 0.00 71 1026.8
20190318143301 51 298 0.0 1.0 0.00 0.00 0.00 72 1026.8
20190318143201 50 298 0.0 1.0 0.00 0.00 0.00 72 1026.8
20190318143101 50 298 0.0 0.0 0.00 0.00 0.00 72 1026.8
20190318143002 50 298 0.0 0.0 0.00 0.00 0.00 72 1026.8
20190318142901 50 298 0.0 0.0 0.00 0.00 0.00 73 1026.8
20190318142801 50 298 0.0 0.0 0.00 0.00 0.00 72 1026.8
20190318142701 50 298 0.0 0.0 0.00 0.00 0.00 72 1026.8
20190318142601 50 298 0.0 0.0 0.00 0.00 0.00 72 1026.8
20190318142500 49 298 0.0 0.0 0.00 0.00 0.00 73 1026.8
20190318142401 49 298 0.0 0.0 0.00 0.00 0.00 73 1026.8
20190318142301 49 270 0.0 0.0 0.00 0.00 0.00 74 1026.8
20190318142201 49 270 0.0 0.0 0.00 0.00 0.00 74 1026.8
20190318142100 49 270 0.0 0.0 0.00 0.00 0.00 75 1026.8
20190318142000 48 270 0.0 1.0 0.00 0.00 0.00 74 1026.8
20190318141901 48 270 0.0 1.0 0.00 0.00 0.00 75 1026.8
20190318141801 48 270 0.0 1.0 0.00 0.00 0.00 75 1026.8
20190318141701 48 270 0.0 1.0 0.00 0.00 0.00 75 1026.8
20190318141602 48 270 0.0 1.0 0.00 0.00 0.00 75 1026.8
20190318141502 48 270 0.0 1.0 0.00 0.00 0.00 74 1026.8
20190318141403 48 270 0.0 0.0 0.00 0.00 0.00 74 1026.8
20190318141301 48 270 0.0 0.0 0.00 0.00 0.00 75 1026.8
20190318141201 48 270 0.0 0.0 0.00 0.00 0.00 75 1026.8
20190318141101 48 270 0.0 0.0 0.00 0.00 0.00 75 1026.8
20190318141001 48 270 0.0 0.0 0.00 0.00 0.00 76 1026.8
20190318140901 48 270 0.0 0.0 0.00 0.00 0.00 77 1026.8
20190318140801 48 270 0.0 0.0 0.00 0.00 0.00 76 1026.8
20190318140701 48 270 0.0 0.0 0.00 0.00 0.00 77 1026.8
20190318140601 47 270 0.0 0.0 0.00 0.00 0.00 77 1026.8
20190318140500 47 266 0.0 0.0 0.00 0.00 0.00 77 1026.8
20190318140400 47 266 0.0 0.0 0.00 0.00 0.00 77 1026.8
20190318140300 47 266 0.0 0.0 0.00 0.00 0.00 77 1026.8
20190318140200 47 266 0.0 0.0 0.00 0.00 0.00 77 1026.8
20190318140100 47 266 0.0 0.0 0.00 0.00 0.00 77 1027.1
20190318140003 47 266 0.0 0.0 0.00 0.00 0.00 77 1027.1
20190318135901 47 266 0.0 0.0 0.00 0.00 0.00 77 1027.1
20190318135801 47 266 0.0 0.0 0.00 0.00 0.00 77 1027.1
20190318135702 46 266 0.0 0.0 0.00 0.00 0.00 77 1027.1
20190318135602 46 266 0.0 0.0 0.00 0.00 0.00 78 1027.1
20190318135501 46 266 0.0 0.0 0.00 0.00 0.00 78 1026.8
20190318135401 46 266 0.0 0.0 0.00 0.00 0.00 77 1026.8
20190318135301 46 266 0.0 0.0 0.00 0.00 0.00 77 1026.8
20190318135201 46 266 0.0 0.0 0.00 0.00 0.00 77 1026.8
20190318135100 46 266 0.0 0.0 0.00 0.00 0.00 77 1026.8
20190318135000 46 266 0.0 1.0 0.00 0.00 0.00 77 1026.8
20190318134900 46 266 0.0 1.0 0.00 0.00 0.00 78 1026.8
20190318134800 46 266 0.0 0.0 0.00 0.00 0.00 78 1026.8
20190318134700 46 266 0.0 0.0 0.00 0.00 0.00 78 1026.8
20190318134601 46 266 0.0 0.0 0.00 0.00 0.00 78 1026.8
20190318134501 46 266 0.0 0.0 0.00 0.00 0.00 78 1026.8
20190318134403 45 266 0.0 0.0 0.00 0.00 0.00 78 1026.8
20190318134302 45 266 0.0 0.0 0.00 0.00 0.00 78 1026.8
20190318134203 45 266 0.0 0.0 0.00 0.00 0.00 78 1026.8
20190318134103 45 266 0.0 0.0 0.00 0.00 0.00 78 1026.8
20190318134001 45 266 0.0 0.0 0.00 0.00 0.00 78 1026.8
20190318133901 45 266 0.0 0.0 0.00 0.00 0.00 79 1026.8
20190318133803 45 266 0.0 0.0 0.00 0.00 0.00 79 1026.8
20190318133701 45 266 0.0 0.0 0.00 0.00 0.00 79 1026.8
20190318133601 45 266 0.0 0.0 0.00 0.00 0.00 79 1026.8
20190318133501 45 266 0.0 0.0 0.00 0.00 0.00 78 1026.8
20190318133401 45 266 0.0 0.0 0.00 0.00 0.00 78 1026.8
20190318133300 45 266 0.0 0.0 0.00 0.00 0.00 79 1026.4
20190318133201 45 266 0.0 0.0 0.00 0.00 0.00 79 1026.8
20190318133101 45 266 0.0 0.0 0.00 0.00 0.00 79 1026.4
20190318133001 44 266 0.0 0.0 0.00 0.00 0.00 79 1026.4
20190318132900 44 266 0.0 0.0 0.00 0.00 0.00 79 1026.4
20190318132801 44 266 0.0 0.0 0.00 0.00 0.00 79 1026.4
20190318132700 44 266 0.0 0.0 0.00 0.00 0.00 79 1026.4
20190318132601 44 266 0.0 0.0 0.00 0.00 0.00 79 1026.4
20190318132500 44 266 0.0 0.0 0.00 0.00 0.00 79 1026.4
20190318132403 44 266 0.0 0.0 0.00 0.00 0.00 79 1026.4
20190318132301 44 266 0.0 0.0 0.00 0.00 0.00 79 1026.4
20190318132201 44 266 0.0 0.0 0.00 0.00 0.00 79 1026.1
20190318132101 44 265 0.0 0.0 0.00 0.00 0.00 79 1026.4
20190318132001 44 266 0.0 0.0 0.00 0.00 0.00 79 1026.4
20190318131901 44 265 0.0 0.0 0.00 0.00 0.00 79 1026.4
20190318131801 44 266 0.0 0.0 0.00 0.00 0.00 79 1026.4
20190318131701 44 266 0.0 0.0 0.00 0.00 0.00 79 1026.1
20190318131601 44 265 0.0 0.0 0.00 0.00 0.00 79 1026.1
20190318131500 44 266 0.0 0.0 0.00 0.00 0.00 80 1026.4
20190318131400 44 266 0.0 0.0 0.00 0.00 0.00 80 1026.1
20190318131300 44 266 0.0 0.0 0.00 0.00 0.00 80 1026.1
20190318131200 43 266 0.0 0.0 0.00 0.00 0.00 80 1026.1
20190318131100 43 266 0.0 0.0 0.00 0.00 0.00 80 1026.1
20190318131001 43 266 0.0 0.0 0.00 0.00 0.00 80 1026.1
20190318130900 43 266 0.0 0.0 0.00 0.00 0.00 80 1026.1
20190318130801 43 266 0.0 0.0 0.00 0.00 0.00 80 1026.1
20190318130702 43 266 0.0 0.0 0.00 0.00 0.00 80 1026.1
20190318130603 43 266 0.0 0.0 0.00 0.00 0.00 80 1026.1
20190318130501 43 265 0.0 0.0 0.00 0.00 0.00 80 1026.1
20190318130402 43 265 0.0 0.0 0.00 0.00 0.00 80 1026.1
20190318130301 43 266 0.0 0.0 0.00 0.00 0.00 80 1026.1
20190318130201 43 266 0.0 0.0 0.00 0.00 0.00 80 1026.1
20190318130101 43 265 0.0 0.0 0.00 0.00 0.00 80 1026.1
20190318130002 43 266 0.0 0.0 0.00 0.00 0.00 80 1026.1
20190318125901 43 266 0.0 0.0 0.00 0.00 0.00 80 1025.7
20190318125801 43 266 0.0 0.0 0.00 0.00 0.00 81 1026.1
20190318125701 43 266 0.0 0.0 0.00 0.00 0.00 81 1025.7
20190318125601 43 266 0.0 0.0 0.00 0.00 0.00 81 1025.7
20190318125500 43 266 0.0 0.0 0.00 0.00 0.00 82 1025.7
20190318125400 43 265 0.0 0.0 0.00 0.00 0.00 82 1025.7
20190318125301 43 266 0.0 0.0 0.00 0.00 0.00 81 1025.7
20190318125203 43 266 0.0 0.0 0.00 0.00 0.00 81 1025.7
20190318125101 43 266 0.0 0.0 0.00 0.00 0.00 81 1025.7
20190318125001 43 266 0.0 1.0 0.00 0.00 0.00 82 1025.7
20190318124901 43 266 0.0 1.0 0.00 0.00 0.00 82 1025.7
20190318124803 43 266 0.0 1.0 0.00 0.00 0.00 82 1025.7
20190318124701 43 265 0.0 1.0 0.00 0.00 0.00 82 1025.7
20190318124602 43 266 0.0 1.0 0.00 0.00 0.00 82 1025.4
20190318124501 42 266 0.0 1.0 0.00 0.00 0.00 82 1025.4
20190318124401 42 266 0.0 1.0 0.00 0.00 0.00 82 1025.7
20190318124301 42 266 0.0 1.0 0.00 0.00 0.00 83 1025.4
20190318124201 42 266 0.0 1.0 0.00 0.00 0.00 82 1025.4
20190318124101 42 266 0.0 0.0 0.00 0.00 0.00 82 1025.4
20190318124001 42 266 0.0 1.0 0.00 0.00 0.00 83 1025.4
20190318123901 42 266 0.0 1.0 0.00 0.00 0.00 82 1025.4
20190318123800 42 266 0.0 1.0 0.00 0.00 0.00 82 1025.4
20190318123701 42 265 0.0 1.0 0.00 0.00 0.00 82 1025.4
20190318123600 42 266 0.0 1.0 0.00 0.00 0.00 82 1025.4
20190318123501 42 266 0.0 1.0 0.00 0.00 0.00 82 1025.4
20190318123403 42 266 0.0 1.0 0.00 0.00 0.00 82 1025.4
20190318123302 42 266 0.0 1.0 0.00 0.00 0.00 82 1025.4
20190318123201 42 266 0.0 1.0 0.00 0.00 0.00 82 1025.4
20190318123101 42 266 0.0 1.0 0.00 0.00 0.00 82 1025.4
20190318123001 42 266 0.0 0.0 0.00 0.00 0.00 82 1025.4
20190318122901 42 265 0.0 0.0 0.00 0.00 0.00 82 1025.4
20190318122801 42 266 0.0 0.0 0.00 0.00 0.00 82 1025.4
20190318122701 42 266 0.0 0.0 0.00 0.00 0.00 82 1025.4
20190318122601 42 266 0.0 0.0 0.00 0.00 0.00 82 1025.4
20190318122501 42 266 0.0 0.0 0.00 0.00 0.00 82 1025.4
20190318122401 42 266 0.0 0.0 0.00 0.00 0.00 82 1025.4
20190318122300 42 266 0.0 0.0 0.00 0.00 0.00 82 1025.4
20190318122200 42 266 0.0 0.0 0.00 0.00 0.00 82 1025.4
20190318122100 42 266 0.0 0.0 0.00 0.00 0.00 82 1025.4
20190318122000 42 266 0.0 1.0 0.00 0.00 0.00 82 1025.4
20190318121901 42 266 0.0 1.0 0.00 0.00 0.00 82 1025.4
20190318121801 42 265 0.0 1.0 0.00 0.00 0.00 82 1025.4
20190318121701 42 266 1.0 1.0 0.00 0.00 0.00 82 1025.4
20190318121603 42 266 0.0 0.0 0.00 0.00 0.00 82 1025.4
20190318121501 42 266 0.0 0.0 0.00 0.00 0.00 82 1025.4
20190318121401 42 266 0.0 0.0 0.00 0.00 0.00 82 1025.4
20190318121301 42 265 0.0 0.0 0.00 0.00 0.00 81 1025.1
20190318121201 43 266 0.0 0.0 0.00 0.00 0.00 82 1025.4
20190318121101 43 266 0.0 0.0 0.00 0.00 0.00 82 1025.1
20190318121002 43 266 0.0 0.0 0.00 0.00 0.00 82 1025.4
20190318120901 43 266 0.0 0.0 0.00 0.00 0.00 82 1025.4
20190318120801 43 266 0.0 0.0 0.00 0.00 0.00 82 1025.4
20190318120701 43 266 0.0 0.0 0.00 0.00 0.00 82 1025.1
20190318120600 43 265 0.0 0.0 0.00 0.00 0.00 82 1025.4
20190318120501 43 266 0.0 0.0 0.00 0.00 0.00 82 1025.4
20190318120400 43 266 0.0 0.0 0.00 0.00 0.00 82 1025.4
20190318120301 43 266 0.0 0.0 0.00 0.00 0.00 82 1025.4
20190318120200 43 266 0.0 0.0 0.00 0.00 0.00 82 1025.4
20190318120102 43 265 0.0 0.0 0.00 0.00 0.00 82 1025.4
20190318120001 43 266 0.0 1.0 0.00 0.00 0.00 82 1025.4
20190318115901 43 265 0.0 0.0 0.00 0.00 0.00 81 1025.4
20190318115803 43 266 0.0 0.0 0.00 0.00 0.00 82 1025.4
20190318115701 43 265 0.0 0.0 0.00 0.00 0.00 82 1025.4
20190318115601 42 266 0.0 0.0 0.00 0.00 0.00 81 1025.4
20190318115501 43 265 0.0 0.0 0.00 0.00 0.00 81 1025.4
20190318115401 43 265 0.0 0.0 0.00 0.00 0.00 81 1025.4
20190318115301 43 266 0.0 0.0 0.00 0.00 0.00 81 1025.4
20190318115201 43 266 0.0 0.0 0.00 0.00 0.00 81 1025.4
20190318115101 43 266 0.0 0.0 0.00 0.00 0.00 81 1025.4
20190318115001 43 265 0.0 1.0 0.00 0.00 0.00 81 1025.4
20190318114901 43 266 0.0 1.0 0.00 0.00 0.00 81 1025.4
20190318114801 43 266 0.0 1.0 0.00 0.00 0.00 81 1025.4
20190318114700 43 266 0.0 1.0 0.00 0.00 0.00 81 1025.4
20190318114601 43 266 0.0 1.0 0.00 0.00 0.00 81 1025.4
20190318114503 43 265 0.0 1.0 0.00 0.00 0.00 81 1025.4
20190318114403 43 265 0.0 0.0 0.00 0.00 0.00 81 1025.4
20190318114301 43 265 0.0 0.0 0.00 0.00 0.00 81 1025.4
20190318114201 43 266 0.0 0.0 0.00 0.00 0.00 81 1025.4
20190318114101 43 265 0.0 0.0 0.00 0.00 0.00 81 1025.4
20190318114002 43 265 0.0 1.0 0.00 0.00 0.00 81 1025.4
20190318113902 43 266 0.0 1.0 0.00 0.00 0.00 81 1025.4
20190318113801 43 266 0.0 1.0 0.00 0.00 0.00 81 1025.4
20190318113701 43 266 0.0 1.0 0.00 0.00 0.00 81 1025.4
20190318113601 43 265 0.0 1.0 0.00 0.00 0.00 81 1025.4
20190318113501 43 265 0.0 1.0 0.00 0.00 0.00 81 1025.4
20190318113401 43 265 0.0 1.0 0.00 0.00 0.00 81 1025.4
20190318113301 43 265 0.0 1.0 0.00 0.00 0.00 81 1025.1
20190318113200 43 266 0.0 0.0 0.00 0.00 0.00 81 1025.1
20190318113100 43 266 0.0 0.0 0.00 0.00 0.00 81 1025.1
20190318113000 43 266 0.0 0.0 0.00 0.00 0.00 81 1025.4
20190318112901 43 266 0.0 0.0 0.00 0.00 0.00 81 1025.4
20190318112802 43 265 0.0 0.0 0.00 0.00 0.00 81 1025.4
20190318112701 43 266 0.0 0.0 0.00 0.00 0.00 81 1025.1
20190318112603 43 265 0.0 0.0 0.00 0.00 0.00 81 1025.1
20190318112501 43 266 0.0 0.0 0.00 0.00 0.00 81 1025.1
20190318112401 43 266 0.0 0.0 0.00 0.00 0.00 81 1025.1
20190318112301 43 266 0.0 0.0 0.00 0.00 0.00 81 1025.1
20190318112201 43 266 0.0 0.0 0.00 0.00 0.00 81 1025.1
20190318112101 43 265 0.0 0.0 0.00 0.00 0.00 81 1025.1
20190318112001 43 265 0.0 1.0 0.00 0.00 0.00 81 1025.1
20190318111901 43 266 0.0 0.0 0.00 0.00 0.00 81 1025.1
20190318111801 43 265 0.0 0.0 0.00 0.00 0.00 81 1025.1
20190318111701 43 265 0.0 0.0 0.00 0.00 0.00 80 1025.1
20190318111601 43 266 0.0 0.0 0.00 0.00 0.00 80 1025.1
20190318111501 43 265 0.0 0.0 0.00 0.00 0.00 80 1025.1
20190318111401 43 266 0.0 0.0 0.00 0.00 0.00 80 1025.1
20190318111301 43 266 0.0 0.0 0.00 0.00 0.00 80 1025.1
20190318111200 43 265 0.0 0.0 0.00 0.00 0.00 80 1025.1
20190318111100 43 266 0.0 0.0 0.00 0.00 0.00 80 1025.1
20190318111003 43 266 0.0 0.0 0.00 0.00 0.00 80 1025.1
20190318110901 43 265 0.0 0.0 0.00 0.00 0.00 80 1025.1
20190318110801 43 265 0.0 0.0 0.00 0.00 0.00 80 1025.1
20190318110701 43 266 0.0 0.0 0.00 0.00 0.00 80 1025.1
20190318110601 44 265 0.0 0.0 0.00 0.00 0.00 79 1025.1
20190318110501 44 266 0.0 0.0 0.00 0.00 0.00 79 1025.1
20190318110401 44 265 0.0 0.0 0.00 0.00 0.00 79 1025.1
20190318110302 44 265 0.0 0.0 0.00 0.00 0.00 79 1025.1
20190318110201 44 265 0.0 0.0 0.00 0.00 0.00 79 1025.1
20190318110101 44 265 0.0 0.0 0.00 0.00 0.00 79 1025.1
20190318110002 44 266 0.0 0.0 0.00 0.00 0.00 79 1025.1
20190318105901 44 266 0.0 0.0 0.00 0.00 0.00 79 1025.1
20190318105801 44 265 0.0 0.0 0.00 0.00 0.00 79 1025.1
20190318105700 44 265 0.0 0.0 0.00 0.00 0.00 79 1025.1
20190318105601 44 266 0.0 0.0 0.00 0.00 0.00 79 1025.1
20190318105500 44 265 0.0 0.0 0.00 0.00 0.00 79 1025.1
20190318105400 44 266 0.0 0.0 0.00 0.00 0.00 79 1025.1
20190318105305 44 266 0.0 0.0 0.00 0.00 0.00 79 1025.1
20190318105203 44 266 0.0 0.0 0.00 0.00 0.00 79 1025.1
20190318105101 44 265 0.0 0.0 0.00 0.00 0.00 79 1025.1
20190318105003 44 266 0.0 0.0 0.00 0.00 0.00 79 1025.1
20190318104901 44 266 0.0 0.0 0.00 0.00 0.00 79 1025.1
20190318104801 44 266 0.0 0.0 0.00 0.00 0.00 79 1025.1
20190318104701 44 265 0.0 0.0 0.00 0.00 0.00 79 1025.1
20190318104601 44 265 0.0 0.0 0.00 0.00 0.00 79 1025.1
20190318104501 44 265 0.0 0.0 0.00 0.00 0.00 79 1025.1
20190318104401 44 266 0.0 0.0 0.00 0.00 0.00 79 1025.1
20190318104301 44 266 0.0 0.0 0.00 0.00 0.00 79 1025.1
20190318104200 44 266 0.0 0.0 0.00 0.00 0.00 78 1025.1
20190318104101 44 266 0.0 0.0 0.00 0.00 0.00 78 1024.7
20190318104001 44 266 0.0 1.0 0.00 0.00 0.00 78 1025.1
20190318103900 44 265 0.0 1.0 0.00 0.00 0.00 78 1025.1
20190318103800 44 266 0.0 1.0 0.00 0.00 0.00 78 1025.1
20190318103701 44 265 0.0 1.0 0.00 0.00 0.00 78 1025.1
20190318103600 44 266 0.0 1.0 0.00 0.00 0.00 78 1024.7
20190318103502 44 265 0.0 1.0 0.00 0.00 0.00 78 1024.7
20190318103403 44 266 0.0 0.0 0.00 0.00 0.00 78 1025.1
20190318103301 44 265 0.0 0.0 0.00 0.00 0.00 78 1024.7
20190318103203 44 265 0.0 0.0 0.00 0.00 0.00 78 1025.1
20190318103102 44 266 0.0 0.0 0.00 0.00 0.00 78 1025.1
20190318103001 44 266 0.0 1.0 0.00 0.00 0.00 78 1024.7
20190318102901 44 266 0.0 1.0 0.00 0.00 0.00 78 1025.1
20190318102801 44 266 0.0 1.0 0.00 0.00 0.00 78 1025.1
20190318102701 44 265 0.0 1.0 0.00 0.00 0.00 78 1025.1
20190318102601 44 265 0.0 1.0 0.00 0.00 0.00 78 1025.1
20190318102501 44 266 0.0 1.0 0.00 0.00 0.00 78 1025.1
20190318102400 44 265 0.0 1.0 0.00 0.00 0.00 78 1025.1
20190318102301 44 265 0.0 1.0 0.00 0.00 0.00 78 1025.1
20190318102203 44 264 0.0 1.0 0.00 0.00 0.00 78 1025.1
20190318102100 44 267 0.0 0.0 0.00 0.00 0.00 78 1025.1
20190318102000 44 266 0.0 1.0 0.00 0.00 0.00 78 1025.1
20190318101901 44 267 0.0 1.0 0.00 0.00 0.00 78 1025.1
20190318101803 44 262 0.0 1.0 0.00 0.00 0.00 78 1025.1
20190318101701 44 262 0.0 1.0 0.00 0.00 0.00 78 1025.1
20190318101603 44 262 0.0 1.0 0.00 0.00 0.00 78 1025.1
20190318101501 44 262 0.0 1.0 0.00 0.00 0.00 78 1025.1
20190318101401 44 262 0.0 0.0 0.00 0.00 0.00 78 1025.1
20190318101301 44 262 0.0 0.0 0.00 0.00 0.00 78 1025.1
20190318101201 44 262 0.0 0.0 0.00 0.00 0.00 78 1025.1
20190318101101 44 262 0.0 0.0 0.00 0.00 0.00 78 1025.1
20190318101001 44 262 0.0 0.0 0.00 0.00 0.00 78 1025.1
20190318100901 44 262 0.0 0.0 0.00 0.00 0.00 78 1025.1
20190318100801 44 262 0.0 0.0 0.00 0.00 0.00 78 1024.7
20190318100701 44 262 0.0 0.0 0.00 0.00 0.00 78 1024.7
20190318100600 44 262 0.0 0.0 0.00 0.00 0.00 78 1024.7
20190318100501 44 262 0.0 0.0 0.00 0.00 0.00 78 1025.1
20190318100401 44 262 0.0 0.0 0.00 0.00 0.00 78 1025.1
20190318100301 44 262 0.0 0.0 0.00 0.00 0.00 78 1025.1
20190318100201 44 262 0.0 0.0 0.00 0.00 0.00 78 1025.1
20190318100101 44 262 0.0 0.0 0.00 0.00 0.00 78 1025.1
20190318100004 44 262 0.0 0.0 0.00 0.00 0.00 78 1025.1
20190318095901 44 262 0.0 0.0 0.00 0.00 0.00 78 1024.7
20190318095801 44 262 0.0 0.0 0.00 0.00 0.00 78 1024.7
20190318095701 44 262 0.0 0.0 0.00 0.00 0.00 78 1024.7
20190318095601 44 262 0.0 0.0 0.00 0.00 0.00 78 1025.1
20190318095501 44 262 0.0 0.0 0.00 0.00 0.00 78 1025.1
20190318095401 44 262 0.0 0.0 0.00 0.00 0.00 78 1024.7
20190318095301 44 262 0.0 0.0 0.00 0.00 0.00 77 1024.7
20190318095201 44 262 0.0 0.0 0.00 0.00 0.00 77 1024.7
20190318095100 44 262 0.0 0.0 0.00 0.00 0.00 77 1024.7
20190318095001 44 262 0.0 1.0 0.00 0.00 0.00 77 1025.1
20190318094900 44 262 0.0 1.0 0.00 0.00 0.00 78 1025.1
20190318094800 44 262 0.0 1.0 0.00 0.00 0.00 78 1025.1
20190318094700 44 263 1.0 1.0 0.00 0.00 0.00 78 1025.1
20190318094600 44 264 0.0 1.0 0.00 0.00 0.00 78 1025.1
20190318094502 44 266 0.0 1.0 0.00 0.00 0.00 78 1025.1
20190318094403 44 266 0.0 1.0 0.00 0.00 0.00 78 1025.1
20190318094302 44 132 0.0 1.0 0.00 0.00 0.00 78 1025.1
20190318094203 44 117 0.0 0.0 0.00 0.00 0.00 78 1025.1
20190318094101 44 117 0.0 0.0 0.00 0.00 0.00 79 1024.7
20190318094001 44 117 0.0 0.0 0.00 0.00 0.00 78 1024.7
20190318093901 44 117 0.0 0.0 0.00 0.00 0.00 78 1024.7
20190318093801 44 117 0.0 0.0 0.00 0.00 0.00 78 1024.7
20190318093701 44 117 0.0 0.0 0.00 0.00 0.00 78 1024.7
20190318093601 44 117 0.0 0.0 0.00 0.00 0.00 78 1024.7
20190318093501 44 117 0.0 0.0 0.00 0.00 0.00 78 1024.7
20190318093401 44 117 0.0 0.0 0.00 0.00 0.00 78 1024.7
20190318093301 44 117 0.0 0.0 0.00 0.00 0.00 78 1024.7
20190318093200 44 117 0.0 0.0 0.00 0.00 0.00 78 1024.7
20190318093101 44 117 0.0 0.0 0.00 0.00 0.00 78 1025.1
20190318093000 44 117 0.0 0.0 0.00 0.00 0.00 78 1024.7
20190318092900 44 117 0.0 0.0 0.00 0.00 0.00 78 1024.7
20190318092803 44 117 0.0 0.0 0.00 0.00 0.00 77 1025.1
20190318092701 44 117 0.0 0.0 0.00 0.00 0.00 77 1025.1
20190318092601 44 117 0.0 0.0 0.00 0.00 0.00 77 1024.7
20190318092502 44 117 0.0 0.0 0.00 0.00 0.00 77 1024.7
20190318092401 44 117 0.0 0.0 0.00 0.00 0.00 77 1025.1
20190318092305 44 117 0.0 0.0 0.00 0.00 0.00 77 1025.1
20190318092201 44 117 0.0 0.0 0.00 0.00 0.00 77 1025.1
20190318092101 44 117 0.0 0.0 0.00 0.00 0.00 77 1025.1
20190318092001 45 117 0.0 0.0 0.00 0.00 0.00 77 1025.1
20190318091901 45 117 0.0 0.0 0.00 0.00 0.00 77 1025.1
20190318091800 45 117 0.0 0.0 0.00 0.00 0.00 77 1025.1
20190318091701 45 117 0.0 0.0 0.00 0.00 0.00 77 1025.1
20190318091600 45 117 0.0 0.0 0.00 0.00 0.00 77 1025.1
20190318091501 45 117 0.0 0.0 0.00 0.00 0.00 77 1025.1
20190318091400 44 117 0.0 0.0 0.00 0.00 0.00 77 1025.1
20190318091302 44 117 0.0 0.0 0.00 0.00 0.00 77 1025.1
20190318091202 44 117 0.0 0.0 0.00 0.00 0.00 77 1025.1
20190318091101 44 117 0.0 0.0 0.00 0.00 0.00 76 1025.1
20190318091001 44 117 0.0 1.0 0.00 0.00 0.00 76 1025.1
20190318090901 44 117 0.0 1.0 0.00 0.00 0.00 76 1025.1
20190318090801 44 117 0.0 1.0 0.00 0.00 0.00 76 1025.1
20190318090701 44 117 0.0 1.0 0.00 0.00 0.00 76 1025.1
20190318090601 44 117 0.0 1.0 0.00 0.00 0.00 76 1025.1
20190318090501 44 117 0.0 1.0 0.00 0.00 0.00 76 1025.1
20190318090401 44 117 0.0 1.0 0.00 0.00 0.00 76 1025.1
20190318090301 44 117 0.0 1.0 0.00 0.00 0.00 76 1025.1
20190318090201 44 117 0.0 1.0 0.00 0.00 0.00 77 1025.1
20190318090101 44 117 0.0 1.0 0.00 0.00 0.00 77 1025.1
20190318090004 44 117 0.0 0.0 0.00 0.00 0.00 77 1025.1
20190318085900 44 117 0.0 0.0 0.00 0.00 0.00 76 1025.1
20190318085800 44 117 0.0 0.0 0.00 0.00 0.00 76 1025.1
20190318085700 44 117 0.0 0.0 0.00 0.00 0.00 76 1024.7
20190318085601 44 117 0.0 0.0 0.00 0.00 0.00 76 1025.1
20190318085501 44 117 0.0 0.0 0.00 0.00 0.00 76 1025.1
20190318085402 44 117 0.0 0.0 0.00 0.00 0.00 76 1025.1
20190318085301 44 117 0.0 0.0 0.00 0.00 0.00 76 1025.1
20190318085203 44 117 0.0 0.0 0.00 0.00 0.00 77 1025.1
20190318085101 44 117 0.0 0.0 0.00 0.00 0.00 77 1025.1
20190318085002 44 117 0.0 0.0 0.00 0.00 0.00 77 1025.1
20190318084901 44 117 0.0 0.0 0.00 0.00 0.00 77 1025.1
20190318084801 44 117 0.0 0.0 0.00 0.00 0.00 77 1025.1
20190318084701 44 117 0.0 0.0 0.00 0.00 0.00 77 1025.1
20190318084601 44 117 0.0 0.0 0.00 0.00 0.00 77 1025.1
20190318084501 44 117 0.0 0.0 0.00 0.00 0.00 78 1025.1
20190318084401 44 117 0.0 0.0 0.00 0.00 0.00 78 1025.1
20190318084301 44 117 0.0 0.0 0.00 0.00 0.00 78 1025.1
20190318084200 44 117 0.0 0.0 0.00 0.00 0.00 78 1025.1
20190318084101 44 117 0.0 0.0 0.00 0.00 0.00 78 1025.1
20190318084000 44 117 0.0 0.0 0.00 0.00 0.00 78 1025.4
20190318083901 44 117 0.0 0.0 0.00 0.00 0.00 77 1025.4
20190318083803 44 117 0.0 0.0 0.00 0.00 0.00 77 1025.1
20190318083701 44 117 0.0 0.0 0.00 0.00 0.00 77 1025.1
20190318083601 44 117 0.0 0.0 0.00 0.00 0.00 77 1025.1
20190318083501 44 117 0.0 0.0 0.00 0.00 0.00 77 1025.1
20190318083401 45 117 0.0 0.0 0.00 0.00 0.00 77 1025.1
20190318083301 45 117 0.0 0.0 0.00 0.00 0.00 77 1025.4
20190318083201 45 117 0.0 0.0 0.00 0.00 0.00 77 1025.4
20190318083101 45 117 0.0 0.0 0.00 0.00 0.00 77 1025.4
20190318083001 45 117 0.0 0.0 0.00 0.00 0.00 77 1025.4
20190318082901 45 117 0.0 0.0 0.00 0.00 0.00 77 1025.4
20190318082801 45 117 0.0 0.0 0.00 0.00 0.00 77 1025.4
20190318082701 45 117 0.0 0.0 0.00 0.00 0.00 77 1025.4
20190318082601 45 117 0.0 0.0 0.00 0.00 0.00 77 1025.4
20190318082500 45 117 0.0 0.0 0.00 0.00 0.00 77 1025.1
20190318082401 45 117 0.0 0.0 0.00 0.00 0.00 77 1025.4
20190318082301 45 117 0.0 0.0 0.00 0.00 0.00 77 1025.4
20190318082200 45 117 0.0 0.0 0.00 0.00 0.00 77 1025.4
20190318082101 45 117 0.0 0.0 0.00 0.00 0.00 77 1025.4
20190318082003 45 117 0.0 0.0 0.00 0.00 0.00 77 1025.4
20190318081901 45 117 0.0 0.0 0.00 0.00 0.00 77 1025.4
20190318081801 45 117 0.0 0.0 0.00 0.00 0.00 77 1025.4
20190318081701 45 117 0.0 0.0 0.00 0.00 0.00 76 1025.4
20190318081601 45 117 0.0 0.0 0.00 0.00 0.00 76 1025.4
20190318081501 45 117 0.0 0.0 0.00 0.00 0.00 76 1025.4
20190318081401 45 117 0.0 0.0 0.00 0.00 0.00 76 1025.4
20190318081301 45 117 0.0 0.0 0.00 0.00 0.00 76 1025.4
20190318081201 45 117 0.0 0.0 0.00 0.00 0.00 76 1025.4
20190318081101 45 117 0.0 0.0 0.00 0.00 0.00 77 1025.4
20190318081001 45 117 0.0 1.0 0.00 0.00 0.00 77 1025.4
20190318080900 45 117 0.0 1.0 0.00 0.00 0.00 76 1025.4
20190318080800 45 117 0.0 1.0 0.00 0.00 0.00 76 1025.4
20190318080700 45 117 0.0 0.0 0.00 0.00 0.00 76 1025.4
20190318080600 45 117 0.0 0.0 0.00 0.00 0.00 76 1025.4
20190318080500 45 117 0.0 0.0 0.00 0.00 0.00 77 1025.4
20190318080401 45 117 0.0 0.0 0.00 0.00 0.00 77 1025.4
20190318080302 45 117 0.0 0.0 0.00 0.00 0.00 77 1025.4
20190318080201 45 117 0.0 0.0 0.00 0.00 0.00 77 1025.4
20190318080101 45 117 0.0 0.0 0.00 0.00 0.00 77 1025.4
20190318080004 45 117 0.0 0.0 0.00 0.00 0.00 77 1025.4
20190318075901 44 117 0.0 0.0 0.00 0.00 0.00 78 1025.7
20190318075803 44 117 0.0 0.0 0.00 0.00 0.00 78 1025.4
20190318075701 44 117 0.0 0.0 0.00 0.00 0.00 78 1025.7
20190318075601 44 117 0.0 0.0 0.00 0.00 0.00 78 1025.4
20190318075501 44 117 0.0 0.0 0.00 0.00 0.00 78 1025.4
20190318075401 44 117 0.0 0.0 0.00 0.00 0.00 78 1025.4
20190318075301 44 117 0.0 0.0 0.00 0.00 0.00 77 1025.4
20190318075201 44 117 0.0 0.0 0.00 0.00 0.00 77 1025.4
20190318075101 44 117 0.0 0.0 0.00 0.00 0.00 77 1025.4
20190318075001 44 117 0.0 0.0 0.00 0.00 0.00 77 1025.4
20190318074901 44 117 0.0 0.0 0.00 0.00 0.00 77 1025.4
20190318074801 44 117 0.0 0.0 0.00 0.00 0.00 77 1025.4
20190318074701 44 117 0.0 0.0 0.00 0.00 0.00 77 1025.4
20190318074603 44 117 0.0 0.0 0.00 0.00 0.00 77 1025.4
20190318074501 44 117 0.0 0.0 0.00 0.00 0.00 77 1025.4
20190318074401 44 117 0.0 0.0 0.00 0.00 0.00 77 1025.4
20190318074301 44 117 0.0 0.0 0.00 0.00 0.00 77 1025.7
20190318074201 44 117 0.0 0.0 0.00 0.00 0.00 77 1025.7
20190318074101 44 117 0.0 0.0 0.00 0.00 0.00 77 1025.4
20190318074001 44 117 0.0 0.0 0.00 0.00 0.00 77 1025.4
20190318073901 44 117 0.0 0.0 0.00 0.00 0.00 77 1025.7
20190318073801 44 117 0.0 0.0 0.00 0.00 0.00 76 1025.7
20190318073701 44 117 0.0 0.0 0.00 0.00 0.00 76 1025.4
20190318073601 44 117 0.0 0.0 0.00 0.00 0.00 76 1025.7
20190318073501 45 117 0.0 0.0 0.00 0.00 0.00 76 1025.7
20190318073401 45 117 0.0 0.0 0.00 0.00 0.00 76 1025.7
20190318073300 45 117 0.0 0.0 0.00 0.00 0.00 76 1025.7
20190318073200 45 117 0.0 0.0 0.00 0.00 0.00 76 1025.7
20190318073100 45 117 0.0 0.0 0.00 0.00 0.00 75 1025.7
20190318073003 45 117 0.0 1.0 0.00 0.00 0.00 75 1025.7
20190318072902 45 117 0.0 1.0 0.00 0.00 0.00 75 1025.4
20190318072802 45 117 0.0 1.0 0.00 0.00 0.00 75 1025.7
20190318072701 45 117 0.0 1.0 0.00 0.00 0.00 74 1025.7
20190318072602 45 117 0.0 1.0 0.00 0.00 0.00 74 1025.7
20190318072501 45 117 0.0 1.0 0.00 0.00 0.00 75 1025.7
20190318072401 45 117 0.0 1.0 0.00 0.00 0.00 75 1025.7
20190318072301 45 117 0.0 1.0 0.00 0.00 0.00 75 1025.4
20190318072201 45 117 0.0 1.0 0.00 0.00 0.00 75 1025.7
20190318072101 45 117 0.0 1.0 0.00 0.00 0.00 75 1025.7
20190318072000 45 117 0.0 0.0 0.00 0.00 0.00 75 1025.4
20190318071901 45 117 0.0 0.0 0.00 0.00 0.00 75 1025.4
20190318071800 45 117 0.0 0.0 0.00 0.00 0.00 75 1025.4
20190318071700 45 117 0.0 0.0 0.00 0.00 0.00 75 1025.4
20190318071600 45 117 0.0 0.0 0.00 0.00 0.00 74 1025.4
20190318071500 45 117 0.0 0.0 0.00 0.00 0.00 74 1025.4
20190318071401 45 117 0.0 0.0 0.00 0.00 0.00 73 1025.4
20190318071301 46 117 0.0 0.0 0.00 0.00 0.00 73 1025.4
20190318071201 46 117 0.0 0.0 0.00 0.00 0.00 73 1025.4
20190318071101 46 117 0.0 0.0 0.00 0.00 0.00 73 1025.4
20190318071003 46 117 0.0 0.0 0.00 0.00 0.00 72 1025.4
20190318070901 46 117 0.0 0.0 0.00 0.00 0.00 72 1025.4
20190318070801 46 117 0.0 0.0 0.00 0.00 0.00 72 1025.4
20190318070701 46 117 0.0 0.0 0.00 0.00 0.00 72 1025.4
20190318070601 46 117 0.0 0.0 0.00 0.00 0.00 73 1025.4
20190318070501 46 117 0.0 0.0 0.00 0.00 0.00 73 1025.4
20190318070401 46 117 0.0 0.0 0.00 0.00 0.00 73 1025.4
20190318070300 46 117 0.0 0.0 0.00 0.00 0.00 73 1025.4
20190318070200 46 117 0.0 0.0 0.00 0.00 0.00 73 1025.4
20190318070100 46 117 0.0 0.0 0.00 0.00 0.00 73 1025.4
20190318070000 46 117 0.0 0.0 0.00 0.00 0.00 72 1025.4
20190318065901 46 117 0.0 0.0 0.00 0.00 0.00 72 1025.4
20190318065800 46 117 0.0 0.0 0.00 0.00 0.00 72 1025.4
20190318065702 46 117 0.0 0.0 0.00 0.00 0.00 72 1025.4
20190318065601 46 117 0.0 0.0 0.00 0.00 0.00 72 1025.4
20190318065501 46 117 0.0 0.0 0.00 0.00 0.00 72 1025.4
20190318065401 46 117 0.0 0.0 0.00 0.00 0.00 72 1025.4
20190318065301 46 117 0.0 0.0 0.00 0.00 0.00 72 1025.4
20190318065201 46 117 0.0 0.0 0.00 0.00 0.00 72 1025.4
20190318065101 46 117 0.0 0.0 0.00 0.00 0.00 72 1025.4
20190318065001 46 117 0.0 1.0 0.00 0.00 0.00 72 1025.4
20190318064901 46 117 0.0 1.0 0.00 0.00 0.00 73 1025.4
20190318064801 46 117 0.0 1.0 0.00 0.00 0.00 72 1025.4
20190318064701 46 117 0.0 1.0 0.00 0.00 0.00 72 1025.4
20190318064601 46 117 0.0 1.0 0.00 0.00 0.00 71 1025.4
20190318064500 47 117 0.0 1.0 0.00 0.00 0.00 71 1025.4
20190318064401 46 117 0.0 1.0 0.00 0.00 0.00 71 1025.4
20190318064300 47 117 0.0 1.0 0.00 0.00 0.00 70 1025.4
20190318064201 47 117 0.0 1.0 0.00 0.00 0.00 70 1025.4
20190318064100 47 117 0.0 0.0 0.00 0.00 0.00 70 1025.4
20190318064002 47 117 0.0 0.0 0.00 0.00 0.00 69 1025.4
20190318063901 47 117 0.0 0.0 0.00 0.00 0.00 69 1025.7
20190318063801 47 117 0.0 0.0 0.00 0.00 0.00 69 1025.4
20190318063701 47 117 0.0 0.0 0.00 0.00 0.00 69 1025.4
20190318063603 47 117 0.0 0.0 0.00 0.00 0.00 69 1025.4
20190318063501 47 117 0.0 0.0 0.00 0.00 0.00 69 1025.4
20190318063401 47 117 0.0 0.0 0.00 0.00 0.00 69 1025.4
20190318063301 47 117 0.0 0.0 0.00 0.00 0.00 69 1025.4
20190318063201 47 117 0.0 0.0 0.00 0.00 0.00 69 1025.4
20190318063101 47 117 0.0 0.0 0.00 0.00 0.00 69 1025.4
20190318063000 47 117 0.0 1.0 0.00 0.00 0.00 69 1025.4
20190318062900 47 117 0.0 1.0 0.00 0.00 0.00 68 1025.7
20190318062800 47 117 0.0 1.0 0.00 0.00 0.00 68 1025.7
20190318062701 47 117 0.0 1.0 0.00 0.00 0.00 68 1025.7
20190318062600 47 117 0.0 1.0 0.00 0.00 0.00 68 1025.7
20190318062500 47 117 0.0 1.0 0.00 0.00 0.00 68 1025.4
20190318062400 47 117 0.0 1.0 0.00 0.00 0.00 69 1025.4
20190318062302 47 117 0.0 1.0 0.00 0.00 0.00 69 1025.4
20190318062203 47 117 0.0 1.0 0.00 0.00 0.00 69 1025.4
20190318062101 47 117 0.0 0.0 0.00 0.00 0.00 69 1025.4
20190318062001 47 117 0.0 0.0 0.00 0.00 0.00 69 1025.4
20190318061901 47 117 0.0 0.0 0.00 0.00 0.00 69 1025.4
20190318061801 47 117 0.0 0.0 0.00 0.00 0.00 69 1025.4
20190318061701 47 117 0.0 0.0 0.00 0.00 0.00 69 1025.4
20190318061601 47 117 0.0 0.0 0.00 0.00 0.00 70 1025.4
20190318061500 47 117 0.0 0.0 0.00 0.00 0.00 70 1025.7
20190318061401 46 117 0.0 0.0 0.00 0.00 0.00 70 1025.7
20190318061301 46 117 0.0 0.0 0.00 0.00 0.00 70 1025.4
20190318061201 47 117 0.0 0.0 0.00 0.00 0.00 69 1025.4
20190318061100 47 117 0.0 0.0 0.00 0.00 0.00 69 1025.7
20190318061000 47 117 0.0 0.0 0.00 0.00 0.00 69 1025.7
20190318060900 47 117 0.0 0.0 0.00 0.00 0.00 68 1025.4
20190318060801 47 117 0.0 0.0 0.00 0.00 0.00 69 1025.4
20190318060702 47 117 0.0 0.0 0.00 0.00 0.00 69 1025.4
20190318060601 47 117 0.0 0.0 0.00 0.00 0.00 69 1025.4
20190318060502 47 117 0.0 0.0 0.00 0.00 0.00 68 1025.7
20190318060401 47 117 0.0 0.0 0.00 0.00 0.00 68 1025.7
20190318060301 47 117 0.0 0.0 0.00 0.00 0.00 68 1025.4
20190318060201 47 117 0.0 0.0 0.00 0.00 0.00 68 1025.4
20190318060101 47 117 0.0 0.0 0.00 0.00 0.00 68 1025.4
20190318060001 47 117 0.0 0.0 0.00 0.00 0.00 68 1025.7
20190318055901 47 117 0.0 0.0 0.00 0.00 0.00 68 1025.7
20190318055801 47 117 0.0 0.0 0.00 0.00 0.00 67 1025.7
20190318055701 48 117 0.0 0.0 0.00 0.00 0.00 67 1025.7
20190318055601 48 117 0.0 0.0 0.00 0.00 0.00 67 1025.7
20190318055501 48 117 0.0 0.0 0.00 0.00 0.00 68 1025.7
20190318055401 48 117 0.0 0.0 0.00 0.00 0.00 68 1025.7
20190318055300 48 117 0.0 0.0 0.00 0.00 0.00 68 1025.7
20190318055201 48 117 0.0 0.0 0.00 0.00 0.00 68 1025.7
20190318055102 48 117 0.0 0.0 0.00 0.00 0.00 68 1025.7
20190318055003 47 117 0.0 0.0 0.00 0.00 0.00 69 1025.7
20190318054902 47 117 0.0 0.0 0.00 0.00 0.00 69 1025.7
20190318054801 47 117 0.0 0.0 0.00 0.00 0.00 68 1025.7
20190318054701 47 117 0.0 0.0 0.00 0.00 0.00 67 1025.4
20190318054602 47 117 0.0 0.0 0.00 0.00 0.00 68 1025.4
20190318054502 47 117 0.0 0.0 0.00 0.00 0.00 68 1025.4
20190318054401 47 117 0.0 0.0 0.00 0.00 0.00 68 1025.4
20190318054301 47 117 0.0 0.0 0.00 0.00 0.00 68 1025.4
20190318054201 47 117 0.0 0.0 0.00 0.00 0.00 68 1025.4
20190318054102 47 117 0.0 0.0 0.00 0.00 0.00 68 1025.4
20190318054001 47 117 0.0 0.0 0.00 0.00 0.00 68 1025.4
20190318053901 47 117 0.0 0.0 0.00 0.00 0.00 68 1025.4
20190318053801 47 117 0.0 0.0 0.00 0.00 0.00 68 1025.4
20190318053701 47 117 0.0 0.0 0.00 0.00 0.00 68 1025.4
20190318053600 47 117 0.0 0.0 0.00 0.00 0.00 68 1025.4
20190318053500 47 117 0.0 0.0 0.00 0.00 0.00 68 1025.4
20190318053400 47 117 0.0 0.0 0.00 0.00 0.00 67 1025.4
20190318053300 48 117 0.0 0.0 0.00 0.00 0.00 67 1025.4
20190318053203 48 117 0.0 0.0 0.00 0.00 0.00 67 1025.4
20190318053102 48 117 0.0 0.0 0.00 0.00 0.00 67 1025.7
20190318053001 48 117 0.0 0.0 0.00 0.00 0.00 67 1025.7
20190318052902 48 117 0.0 0.0 0.00 0.00 0.00 67 1025.7
20190318052801 48 117 0.0 0.0 0.00 0.00 0.00 67 1025.7
20190318052701 48 117 0.0 0.0 0.00 0.00 0.00 66 1025.7
20190318052601 48 117 0.0 0.0 0.00 0.00 0.00 66 1025.7
20190318052501 48 117 0.0 0.0 0.00 0.00 0.00 67 1025.7
20190318052401 48 117 0.0 0.0 0.00 0.00 0.00 66 1025.7
20190318052301 48 117 0.0 0.0 0.00 0.00 0.00 66 1025.7
20190318052201 48 117 0.0 0.0 0.00 0.00 0.00 66 1025.7
20190318052101 48 117 0.0 0.0 0.00 0.00 0.00 66 1025.4
20190318052000 48 117 0.0 0.0 0.00 0.00 0.00 65 1025.7
20190318051900 48 117 0.0 0.0 0.00 0.00 0.00 65 1025.7
20190318051800 48 117 0.0 0.0 0.00 0.00 0.00 65 1025.7
20190318051700 49 117 0.0 0.0 0.00 0.00 0.00 65 1025.7
20190318051601 49 117 0.0 0.0 0.00 0.00 0.00 64 1025.7
20190318051501 49 117 0.0 0.0 0.00 0.00 0.00 64 1025.7
20190318051403 49 117 0.0 0.0 0.00 0.00 0.00 64 1025.7
20190318051301 49 117 0.0 0.0 0.00 0.00 0.00 64 1025.7
20190318051201 49 117 0.0 0.0 0.00 0.00 0.00 64 1025.7
20190318051101 49 117 0.0 0.0 0.00 0.00 0.00 64 1025.7
20190318051003 49 117 0.0 0.0 0.00 0.00 0.00 64 1025.7
20190318050901 49 117 0.0 0.0 0.00 0.00 0.00 64 1025.7
20190318050801 49 117 0.0 0.0 0.00 0.00 0.00 64 1026.1
20190318050701 49 117 0.0 0.0 0.00 0.00 0.00 64 1026.1
20190318050601 49 117 0.0 0.0 0.00 0.00 0.00 64 1026.1
20190318050500 49 117 0.0 0.0 0.00 0.00 0.00 64 1026.1
20190318050401 49 117 0.0 0.0 0.00 0.00 0.00 64 1026.1
20190318050301 49 117 0.0 0.0 0.00 0.00 0.00 64 1026.1
20190318050201 49 117 0.0 0.0 0.00 0.00 0.00 63 1025.7
20190318050100 49 117 0.0 0.0 0.00 0.00 0.00 63 1025.7
20190318050005 49 117 0.0 0.0 0.00 0.00 0.00 62 1026.1
20190318045902 50 117 0.0 0.0 0.00 0.00 0.00 60 1026.1
20190318045801 50 117 0.0 0.0 0.00 0.00 0.00 60 1025.7
20190318045701 50 117 0.0 0.0 0.00 0.00 0.00 60 1026.1
20190318045601 50 117 0.0 0.0 0.00 0.00 0.00 60 1026.1
20190318045501 50 117 0.0 0.0 0.00 0.00 0.00 60 1026.1
20190318045403 50 117 0.0 0.0 0.00 0.00 0.00 59 1026.1
20190318045301 50 117 0.0 0.0 0.00 0.00 0.00 59 1026.1
20190318045204 50 117 0.0 0.0 0.00 0.00 0.00 59 1026.1
20190318045101 50 117 0.0 0.0 0.00 0.00 0.00 59 1026.1
20190318045004 50 117 0.0 0.0 0.00 0.00 0.00 59 1026.1
20190318044900 50 117 0.0 0.0 0.00 0.00 0.00 59 1026.1
20190318044804 50 117 0.0 0.0 0.00 0.00 0.00 58 1026.1
20190318044700 50 117 0.0 0.0 0.00 0.00 0.00 58 1026.1
20190318044603 50 117 0.0 0.0 0.00 0.00 0.00 58 1026.1
20190318044500 50 117 0.0 0.0 0.00 0.00 0.00 57 1026.1
20190318044404 51 117 0.0 0.0 0.00 0.00 0.00 56 1026.1
20190318044301 51 117 0.0 0.0 0.00 0.00 0.00 56 1026.1
20190318044203 51 117 0.0 0.0 0.00 0.00 0.00 56 1026.1
20190318044101 51 117 0.0 0.0 0.00 0.00 0.00 55 1025.7
20190318044001 51 117 0.0 0.0 0.00 0.00 0.00 55 1026.1
20190318043901 51 117 0.0 0.0 0.00 0.00 0.00 55 1026.1
20190318043801 51 117 0.0 0.0 0.00 0.00 0.00 55 1025.7
20190318043701 51 117 0.0 0.0 0.00 0.00 0.00 54 1025.7
20190318043601 51 117 0.0 0.0 0.00 0.00 0.00 53 1026.1
20190318043502 51 117 0.0 0.0 0.00 0.00 0.00 53 1026.1
20190318043400 51 117 0.0 0.0 0.00 0.00 0.00 53 1025.7
20190318043302 51 117 0.0 0.0 0.00 0.00 0.00 52 1026.1
20190318043203 51 117 0.0 0.0 0.00 0.00 0.00 52 1026.1
20190318043100 51 117 0.0 0.0 0.00 0.00 0.00 51 1026.1
20190318043000 51 117 0.0 0.0 0.00 0.00 0.00 51 1026.1
20190318042901 51 117 0.0 0.0 0.00 0.00 0.00 51 1026.1
20190318042801 52 117 0.0 0.0 0.00 0.00 0.00 51 1025.7
20190318042701 52 117 0.0 0.0 0.00 0.00 0.00 51 1025.7
20190318042601 52 117 0.0 0.0 0.00 0.00 0.00 52 1025.7
20190318042501 52 117 0.0 0.0 0.00 0.00 0.00 51 1025.7
20190318042402 52 117 0.0 0.0 0.00 0.00 0.00 50 1026.1
20190318042301 52 117 0.0 0.0 0.00 0.00 0.00 50 1026.1
20190318042201 52 117 0.0 0.0 0.00 0.00 0.00 50 1025.7
20190318042102 52 117 0.0 0.0 0.00 0.00 0.00 50 1025.7
20190318042001 52 117 0.0 1.0 0.00 0.00 0.00 50 1026.1
20190318041902 52 117 0.0 1.0 0.00 0.00 0.00 50 1025.7
20190318041801 53 117 0.0 1.0 0.00 0.00 0.00 50 1025.7
20190318041703 53 117 0.0 1.0 0.00 0.00 0.00 49 1025.7
20190318041601 53 117 0.0 1.0 0.00 0.00 0.00 50 1025.7
20190318041502 53 117 0.0 1.0 0.00 0.00 0.00 49 1025.7
20190318041403 53 117 0.0 1.0 0.00 0.00 0.00 49 1025.7
20190318041301 53 117 0.0 1.0 0.00 0.00 0.00 49 1025.7
20190318041202 53 117 0.0 1.0 0.00 0.00 0.00 49 1025.7
20190318041100 53 117 0.0 0.0 0.00 0.00 0.00 49 1026.1
20190318041003 53 117 0.0 2.0 0.00 0.00 0.00 48 1025.7
20190318040901 53 117 0.0 2.0 0.00 0.00 0.00 48 1025.7
20190318040803 53 117 0.0 2.0 0.00 0.00 0.00 48 1025.7
20190318040701 53 117 0.0 2.0 0.00 0.00 0.00 48 1026.1
20190318040601 54 117 0.0 2.0 0.00 0.00 0.00 48 1025.7
20190318040501 54 117 0.0 0.0 0.00 0.00 0.00 47 1026.1
20190318040401 54 117 0.0 0.0 0.00 0.00 0.00 47 1026.1
20190318040301 54 117 0.0 0.0 0.00 0.00 0.00 47 1026.1
20190318040203 54 117 0.0 0.0 0.00 0.00 0.00 47 1026.1
20190318040101 54 117 0.0 0.0 0.00 0.00 0.00 47 1026.1
20190318040003 54 117 0.0 3.0 0.00 0.00 0.00 47 1026.1
20190318035900 54 117 0.0 3.0 0.00 0.00 0.00 47 1026.1
20190318035801 54 117 0.0 3.0 0.00 0.00 0.00 47 1026.1
20190318035702 54 117 0.0 3.0 0.00 0.00 0.00 46 1026.1
20190318035600 54 117 0.0 3.0 0.00 0.00 0.00 46 1026.1
20190318035502 54 117 0.0 3.0 0.00 0.00 0.00 46 1026.1
20190318035403 54 117 0.0 3.0 0.00 0.00 0.00 46 1026.1
20190318035302 54 117 0.0 3.0 0.00 0.00 0.00 46 1026.1
20190318035201 55 126 0.0 1.0 0.00 0.00 0.00 46 1026.1
20190318035101 55 126 0.0 1.0 0.00 0.00 0.00 45 1026.1
20190318035005 55 119 1.0 7.0 0.00 0.00 0.00 46 1026.1
20190318034903 55 126 0.0 7.0 0.00 0.00 0.00 46 1026.1
20190318034801 55 126 0.0 7.0 0.00 0.00 0.00 45 1026.1
20190318034702 55 127 0.0 7.0 0.00 0.00 0.00 45 1026.1
20190318034601 55 127 0.0 7.0 0.00 0.00 0.00 45 1026.1
20190318034503 55 142 2.0 7.0 0.00 0.00 0.00 45 1026.1
20190318034401 55 127 3.0 4.0 0.00 0.00 0.00 45 1025.7
20190318034301 55 98 1.0 3.0 0.00 0.00 0.00 45 1025.7
20190318034200 55 98 2.0 3.0 0.00 0.00 0.00 45 1025.7
20190318034102 55 98 0.0 2.0 0.00 0.00 0.00 45 1025.7
20190318034000 55 98 2.0 6.0 0.00 0.00 0.00 45 1025.7
20190318033902 55 98 0.0 6.0 0.00 0.00 0.00 45 1025.7
20190318033801 55 98 2.0 6.0 0.00 0.00 0.00 45 1025.7
20190318033702 55 98 0.0 6.0 0.00 0.00 0.00 45 1025.7
20190318033602 55 98 2.0 3.0 0.00 0.00 0.00 45 1025.7
20190318033501 55 98 1.0 3.0 0.00 0.00 0.00 45 1025.7
20190318033401 55 98 1.0 1.0 0.00 0.00 0.00 45 1025.4
20190318033301 55 98 0.0 0.0 0.00 0.00 0.00 45 1025.7
20190318033201 55 98 0.0 0.0 0.00 0.00 0.00 45 1025.4
20190318033101 55 98 0.0 0.0 0.00 0.00 0.00 45 1025.7
20190318033001 55 100 0.0 6.0 0.00 0.00 0.00 45 1025.7
20190318032901 55 99 0.0 6.0 0.00 0.00 0.00 45 1025.4
20190318032804 55 106 6.0 6.0 0.00 0.00 0.00 45 1025.4
20190318032700 55 90 1.0 3.0 0.00 0.00 0.00 45 1025.4
20190318032603 55 90 0.0 3.0 0.00 0.00 0.00 45 1025.4
20190318032501 55 90 0.0 3.0 0.00 0.00 0.00 45 1025.7
20190318032404 55 90 0.0 3.0 0.00 0.00 0.00 45 1025.7
20190318032301 55 90 0.0 3.0 0.00 0.00 0.00 45 1025.4
20190318032203 56 89 0.0 3.0 0.00 0.00 0.00 45 1025.4
20190318032101 56 89 0.0 3.0 0.00 0.00 0.00 44 1025.4
20190318032004 56 88 0.0 6.0 0.00 0.00 0.00 44 1025.4
20190318031901 56 87 0.0 6.0 0.00 0.00 0.00 44 1025.4
20190318031803 56 88 3.0 6.0 0.00 0.00 0.00 44 1025.4
20190318031703 56 88 0.0 6.0 0.00 0.00 0.00 44 1025.4
20190318031601 56 88 0.0 6.0 0.00 0.00 0.00 44 1025.4
20190318031503 56 85 4.0 6.0 0.00 0.00 0.00 44 1025.4
20190318031401 56 85 0.0 6.0 0.00 0.00 0.00 44 1025.4
20190318031301 56 84 0.0 6.0 0.00 0.00 0.00 44 1025.4
20190318031201 56 81 1.0 6.0 0.00 0.00 0.00 44 1025.4
20190318031102 56 79 4.0 6.0 0.00 0.00 0.00 44 1025.4
20190318031001 56 73 2.0 4.0 0.00 0.00 0.00 44 1025.4
20190318030901 56 76 0.0 3.0 0.00 0.00 0.00 45 1025.4
20190318030800 56 76 0.0 3.0 0.00 0.00 0.00 44 1025.4
20190318030701 56 76 3.0 3.0 0.00 0.00 0.00 45 1025.4
20190318030600 56 76 0.0 3.0 0.00 0.00 0.00 44 1025.4
20190318030501 56 76 0.0 3.0 0.00 0.00 0.00 44 1025.4
20190318030402 56 76 0.0 3.0 0.00 0.00 0.00 44 1025.4
20190318030302 56 76 2.0 3.0 0.00 0.00 0.00 44 1025.4
20190318030201 56 76 0.0 0.0 0.00 0.00 0.00 44 1025.4
20190318030101 56 76 0.0 0.0 0.00 0.00 0.00 45 1025.4
20190318030004 56 76 0.0 3.0 0.00 0.00 0.00 44 1025.4
20190318025901 56 76 0.0 3.0 0.00 0.00 0.00 44 1025.4
20190318025804 56 76 2.0 3.0 0.00 0.00 0.00 44 1025.4
20190318025701 56 76 0.0 2.0 0.00 0.00 0.00 44 1025.4
20190318025604 56 76 0.0 2.0 0.00 0.00 0.00 44 1025.4
20190318025501 56 76 0.0 2.0 0.00 0.00 0.00 44 1025.7
20190318025404 56 76 0.0 2.0 0.00 0.00 0.00 44 1025.7
20190318025303 56 76 1.0 2.0 0.00 0.00 0.00 44 1025.4
20190318025200 56 76 0.0 0.0 0.00 0.00 0.00 44 1025.7
20190318025100 56 76 0.0 0.0 0.00 0.00 0.00 44 1025.7
20190318025000 56 76 0.0 1.0 0.00 0.00 0.00 44 1025.7
20190318024902 56 76 0.0 1.0 0.00 0.00 0.00 44 1025.7
20190318024801 56 76 0.0 1.0 0.00 0.00 0.00 44 1025.4
20190318024701 56 76 0.0 1.0 0.00 0.00 0.00 44 1025.7
20190318024601 56 76 0.0 1.0 0.00 0.00 0.00 44 1025.7
20190318024503 56 76 0.0 0.0 0.00 0.00 0.00 44 1025.7
20190318024401 56 76 0.0 0.0 0.00 0.00 0.00 44 1025.4
20190318024303 56 76 0.0 0.0 0.00 0.00 0.00 44 1025.4
20190318024201 56 76 0.0 0.0 0.00 0.00 0.00 44 1025.7
20190318024101 56 76 0.0 0.0 0.00 0.00 0.00 44 1025.7
20190318024003 56 76 0.0 1.0 0.00 0.00 0.00 44 1025.7
20190318023900 56 76 0.0 1.0 0.00 0.00 0.00 44 1025.7
20190318023804 56 76 0.0 1.0 0.00 0.00 0.00 44 1025.7
20190318023701 56 76 0.0 0.0 0.00 0.00 0.00 44 1025.7
20190318023604 56 76 0.0 0.0 0.00 0.00 0.00 43 1025.7
20190318023501 56 76 0.0 0.0 0.00 0.00 0.00 44 1025.7
20190318023400 56 76 0.0 0.0 0.00 0.00 0.00 43 1025.7
20190318023301 56 76 0.0 0.0 0.00 0.00 0.00 44 1025.7
20190318023203 56 76 0.0 0.0 0.00 0.00 0.00 44 1025.7
20190318023101 56 76 0.0 0.0 0.00 0.00 0.00 44 1025.7
20190318023004 57 76 0.0 1.0 0.00 0.00 0.00 45 1025.7
20190318022903 57 76 0.0 1.0 0.00 0.00 0.00 43 1025.7
20190318022801 57 76 0.0 1.0 0.00 0.00 0.00 43 1025.7
20190318022702 57 76 0.0 1.0 0.00 0.00 0.00 43 1025.7
20190318022603 57 76 0.0 1.0 0.00 0.00 0.00 42 1025.7
20190318022501 57 76 0.0 1.0 0.00 0.00 0.00 42 1025.7
20190318022401 57 76 0.0 1.0 0.00 0.00 0.00 42 1025.7
20190318022300 57 76 0.0 1.0 0.00 0.00 0.00 42 1025.7
20190318022201 57 76 0.0 1.0 0.00 0.00 0.00 42 1025.7
20190318022100 57 76 0.0 1.0 0.00 0.00 0.00 41 1025.4
20190318022000 57 76 0.0 2.0 0.00 0.00 0.00 41 1025.7
20190318021901 57 76 0.0 2.0 0.00 0.00 0.00 41 1025.7
20190318021801 57 76 0.0 2.0 0.00 0.00 0.00 41 1025.4
20190318021701 57 76 0.0 2.0 0.00 0.00 0.00 41 1025.4
20190318021600 57 76 0.0 2.0 0.00 0.00 0.00 41 1025.4
20190318021502 57 76 0.0 2.0 0.00 0.00 0.00 41 1025.4
20190318021402 57 76 0.0 2.0 0.00 0.00 0.00 42 1025.4
20190318021301 57 76 0.0 2.0 0.00 0.00 0.00 41 1025.4
20190318021202 57 76 0.0 2.0 0.00 0.00 0.00 42 1025.4
20190318021101 57 76 2.0 2.0 0.00 0.00 0.00 41 1025.4
20190318021001 57 76 0.0 3.0 0.00 0.00 0.00 42 1025.4
20190318020902 57 76 0.0 3.0 0.00 0.00 0.00 41 1025.4
20190318020801 57 76 0.0 3.0 0.00 0.00 0.00 41 1025.4
20190318020701 57 76 0.0 3.0 0.00 0.00 0.00 41 1025.4
20190318020601 57 76 2.0 2.0 0.00 0.00 0.00 41 1025.1
20190318020501 57 76 0.0 1.0 0.00 0.00 0.00 42 1025.1
20190318020401 57 77 0.0 1.0 0.00 0.00 0.00 41 1025.4
20190318020302 57 77 0.0 1.0 0.00 0.00 0.00 41 1025.1
20190318020200 57 77 0.0 1.0 0.00 0.00 0.00 41 1025.1
20190318020101 57 77 0.0 1.0 0.00 0.00 0.00 41 1025.1
20190318020001 57 77 0.0 4.0 0.00 0.00 0.00 41 1025.1
20190318015902 57 61 1.0 1.0 0.00 0.00 0.00 41 1025.1
20190318015805 57 61 0.0 1.0 0.00 0.00 0.00 41 1025.1
20190318015701 57 61 0.0 1.0 0.00 0.00 0.00 41 1025.1
20190318015604 57 61 0.0 1.0 0.00 0.00 0.00 41 1025.1
20190318015501 57 61 0.0 1.0 0.00 0.00 0.00 41 1025.1
20190318015402 57 61 0.0 1.0 0.00 0.00 0.00 41 1025.1
20190318015303 58 61 0.0 1.0 0.00 0.00 0.00 41 1025.1
20190318015201 58 61 0.0 1.0 0.00 0.00 0.00 40 1025.1
20190318015101 57 61 0.0 1.0 0.00 0.00 0.00 41 1025.1
20190318015001 57 61 0.0 3.0 0.00 0.00 0.00 41 1025.1
20190318014901 58 61 0.0 3.0 0.00 0.00 0.00 40 1025.1
20190318014801 58 61 0.0 3.0 0.00 0.00 0.00 40 1025.1
20190318014701 58 61 0.0 3.0 0.00 0.00 0.00 40 1025.1
20190318014600 58 61 0.0 3.0 0.00 0.00 0.00 40 1025.1
20190318014501 58 61 0.0 3.0 0.00 0.00 0.00 40 1025.1
20190318014403 58 61 0.0 3.0 0.00 0.00 0.00 40 1025.1
20190318014302 58 61 1.0 1.0 0.00 0.00 0.00 40 1025.1
20190318014204 58 61 0.0 1.0 0.00 0.00 0.00 40 1025.1
20190318014101 58 61 0.0 1.0 0.00 0.00 0.00 39 1025.1
20190318014003 58 61 0.0 3.0 0.00 0.00 0.00 39 1025.1
20190318013901 58 61 2.0 3.0 0.00 0.00 0.00 39 1025.1
20190318013801 58 61 0.0 3.0 0.00 0.00 0.00 39 1025.1
20190318013701 58 61 2.0 2.0 0.00 0.00 0.00 39 1025.1
20190318013604 58 61 0.0 1.0 0.00 0.00 0.00 39 1025.1
20190318013501 58 61 0.0 1.0 0.00 0.00 0.00 39 1025.1
20190318013401 58 61 0.0 1.0 0.00 0.00 0.00 39 1025.1
20190318013301 58 61 0.0 1.0 0.00 0.00 0.00 39 1025.1
20190318013203 58 61 0.0 1.0 0.00 0.00 0.00 39 1025.1
20190318013100 58 61 1.0 1.0 0.00 0.00 0.00 39 1025.1
20190318013004 58 61 0.0 1.0 0.00 0.00 0.00 39 1025.1
20190318012901 58 61 1.0 1.0 0.00 0.00 0.00 39 1025.1
20190318012804 58 61 0.0 1.0 0.00 0.00 0.00 39 1025.1
20190318012700 58 61 0.0 1.0 0.00 0.00 0.00 38 1025.1
20190318012603 58 61 0.0 1.0 0.00 0.00 0.00 38 1025.1
20190318012502 58 61 1.0 1.0 0.00 0.00 0.00 38 1025.1
20190318012401 58 61 0.0 0.0 0.00 0.00 0.00 38 1025.1
20190318012301 59 61 0.0 0.0 0.00 0.00 0.00 38 1025.1
20190318012203 59 61 0.0 0.0 0.00 0.00 0.00 38 1025.1
20190318012101 59 61 0.0 0.0 0.00 0.00 0.00 37 1025.1
20190318012001 59 61 0.0 3.0 0.00 0.00 0.00 37 1025.4
20190318011901 59 61 0.0 3.0 0.00 0.00 0.00 38 1025.1
20190318011801 59 61 0.0 3.0 0.00 0.00 0.00 37 1025.4
20190318011701 59 61 0.0 3.0 0.00 0.00 0.00 37 1025.1
20190318011603 59 61 1.0 3.0 0.00 0.00 0.00 37 1025.1
20190318011501 59 61 0.0 3.0 0.00 0.00 0.00 37 1025.1
20190318011404 59 61 0.0 3.0 0.00 0.00 0.00 37 1025.1
20190318011300 59 61 0.0 3.0 0.00 0.00 0.00 37 1025.1
20190318011202 59 61 0.0 3.0 0.00 0.00 0.00 37 1025.1
20190318011100 59 61 1.0 3.0 0.00 0.00 0.00 36 1025.1
20190318011000 59 61 0.0 1.0 0.00 0.00 0.00 37 1025.1
20190318010901 59 61 0.0 1.0 0.00 0.00 0.00 37 1025.1
20190318010803 59 61 0.0 0.0 0.00 0.00 0.00 37 1025.1
20190318010701 59 61 0.0 0.0 0.00 0.00 0.00 37 1025.1
20190318010601 59 61 0.0 0.0 0.00 0.00 0.00 37 1025.1
20190318010501 59 61 0.0 0.0 0.00 0.00 0.00 37 1025.1
20190318010403 59 61 0.0 0.0 0.00 0.00 0.00 36 1024.7
20190318010301 59 61 0.0 0.0 0.00 0.00 0.00 37 1025.1
20190318010201 59 61 0.0 0.0 0.00 0.00 0.00 36 1024.7
20190318010101 59 61 0.0 0.0 0.00 0.00 0.00 36 1025.1
20190318010004 59 61 0.0 3.0 0.00 0.00 0.00 36 1024.7
20190318005901 59 61 0.0 3.0 0.00 0.00 0.00 36 1024.7
20190318005803 60 61 0.0 3.0 0.00 0.00 0.00 36 1024.7
20190318005700 60 61 0.0 3.0 0.00 0.00 0.00 36 1024.7
20190318005600 60 61 0.0 3.0 0.00 0.00 0.00 34 1024.7
20190318005501 60 79 0.0 2.0 0.00 0.00 0.00 36 1024.7
20190318005400 60 79 0.0 2.0 0.00 0.00 0.00 36 1024.7
20190318005301 60 79 0.0 2.0 0.00 0.00 0.00 36 1024.7
20190318005202 60 79 0.0 2.0 0.00 0.00 0.00 36 1024.7
20190318005101 60 79 2.0 2.0 0.00 0.00 0.00 34 1024.7
20190318005001 60 79 0.0 5.0 0.00 0.00 0.00 34 1024.7
20190318004901 60 79 0.0 5.0 0.00 0.00 0.00 34 1024.7
20190318004801 60 79 0.0 5.0 0.00 0.00 0.00 34 1024.7
20190318004701 60 79 0.0 5.0 0.00 0.00 0.00 34 1024.7
20190318004603 60 79 0.0 5.0 0.00 0.00 0.00 34 1024.7
20190318004501 60 79 0.0 5.0 0.00 0.00 0.00 34 1024.7
20190318004401 60 79 0.0 5.0 0.00 0.00 0.00 34 1024.7
20190318004301 60 94 0.0 5.0 0.00 0.00 0.00 34 1024.4
20190318004201 60 66 0.0 5.0 0.00 0.00 0.00 33 1024.7
20190318004100 60 63 0.0 3.0 0.00 0.00 0.00 33 1024.4
20190318004000 60 61 0.0 9.0 0.00 0.00 0.00 33 1024.4
20190318003901 60 75 1.0 9.0 0.00 0.00 0.00 33 1024.4
20190318003800 60 71 0.0 7.0 0.00 0.00 0.00 33 1024.4
20190318003700 60 71 0.0 7.0 0.00 0.00 0.00 33 1024.4
20190318003601 60 70 0.0 7.0 0.00 0.00 0.00 33 1024.4
20190318003502 60 71 4.0 7.0 0.00 0.00 0.00 33 1024.4
20190318003402 60 72 1.0 7.0 0.00 0.00 0.00 33 1024.4
20190318003301 60 71 0.0 5.0 0.00 0.00 0.00 33 1024.4
20190318003203 61 71 3.0 5.0 0.00 0.00 0.00 33 1024.4
20190318003101 61 93 0.0 1.0 0.00 0.00 0.00 32 1024.4
20190318002901 61 87 3.0 4.0 0.00 0.00 0.00 32 1024.7
20190318002804 61 94 0.0 4.0 0.00 0.00 0.00 32 1024.7
20190318002701 61 92 1.0 4.0 0.00 0.00 0.00 32 1024.7
20190318002601 61 92 0.0 4.0 0.00 0.00 0.00 32 1024.7
20190318002502 61 92 1.0 4.0 0.00 0.00 0.00 31 1024.7
20190318002401 61 78 3.0 4.0 0.00 0.00 0.00 32 1024.7
20190318002301 61 67 0.0 4.0 0.00 0.00 0.00 32 1024.7
20190318002201 61 67 0.0 4.0 0.00 0.00 0.00 31 1024.7
20190318002102 61 67 0.0 4.0 0.00 0.00 0.00 31 1024.7
20190318002000 61 67 0.0 7.0 0.00 0.00 0.00 31 1024.7
20190318001901 61 73 1.0 7.0 0.00 0.00 0.00 31 1024.7
20190318001803 61 77 1.0 7.0 0.00 0.00 0.00 31 1024.7
20190318001701 61 77 0.0 7.0 0.00 0.00 0.00 30 1024.7
20190318001501 62 77 0.0 7.0 0.00 0.00 0.00 30 1024.7
20190318001402 62 75 2.0 7.0 0.00 0.00 0.00 30 1024.7
20190318001301 62 50 0.0 7.0 0.00 0.00 0.00 30 1024.4
20190318001201 62 88 1.0 7.0 0.00 0.00 0.00 30 1024.7
20190318001101 62 72 0.0 0.0 0.00 0.00 0.00 30 1024.7
20190318001001 62 58 0.0 7.0 0.00 0.00 0.00 30 1024.7
20190318000901 62 65 0.0 7.0 0.00 0.00 0.00 30 1024.7
20190318000801 62 69 3.0 7.0 0.00 0.00 0.00 30 1024.7
20190318000700 62 77 0.0 7.0 0.00 0.00 0.00 29 1024.7
20190318000600 62 82 4.0 7.0 0.00 0.00 0.00 30 1024.7
20190318000500 62 87 0.0 7.0 0.00 0.00 0.00 30 1024.4
20190318000401 62 90 0.0 7.0 0.00 0.00 0.00 29 1024.4
20190318000301 62 90 0.0 7.0 0.00 0.00 0.00 29 1024.4
20190318000200 62 90 4.0 7.0 0.00 0.00 0.00 30 1024.4
20190318000102 62 87 6.0 7.0 0.00 0.00 0.00 29 1024.4
20190318000004 63 92 4.0 8.0 0.00 0.00 0.00 30 1024.4
20190317235901 63 44 1.0 8.0 0.00 0.00 0.00 29 1024.4
20190317235801 63 46 3.0 8.0 0.00 0.00 0.00 30 1024.4
20190317235701 63 86 1.0 8.0 0.00 0.00 0.00 29 1024.4
20190317235601 63 53 3.0 8.0 0.00 0.00 0.00 29 1024.4
20190317235501 63 27 2.0 8.0 0.00 0.00 0.00 29 1024.4
20190317235401 63 35 5.0 5.0 0.00 0.00 0.00 30 1024.4
20190317235303 63 57 0.0 5.0 0.00 0.00 0.00 29 1024.4
20190317235201 63 57 4.0 5.0 0.00 0.00 0.00 29 1024.4
20190317235101 63 48 4.0 5.0 0.00 0.00 0.00 29 1024.4
20190317235001 63 54 5.0 8.0 0.00 0.00 0.00 29 1024.7
20190317234901 63 54 1.0 8.0 0.00 0.00 0.00 30 1024.7
20190317234800 63 54 0.0 8.0 0.00 0.00 0.00 29 1024.7
20190317234701 63 54 0.0 8.0 0.00 0.00 0.00 29 1024.7
20190317234600 63 54 2.0 8.0 0.00 0.00 0.00 30 1024.7
20190317234502 63 54 2.0 8.0 0.00 0.00 0.00 28 1024.7
20190317234403 63 52 0.0 8.0 0.00 0.00 0.00 28 1024.4
20190317234301 63 50 8.0 8.0 0.00 0.00 0.00 29 1024.4
20190317234204 63 52 1.0 6.0 0.00 0.00 0.00 29 1024.4
20190317234101 63 50 2.0 6.0 0.00 0.00 0.00 29 1024.4
20190317234003 63 50 4.0 8.0 0.00 0.00 0.00 29 1024.4
20190317233901 63 94 6.0 8.0 0.00 0.00 0.00 28 1024.4
20190317233801 63 27 4.0 8.0 0.00 0.00 0.00 28 1024.4
20190317233701 64 39 2.0 8.0 0.00 0.00 0.00 29 1024.4
20190317233602 64 27 1.0 8.0 0.00 0.00 0.00 29 1024.4
20190317233501 64 97 4.0 8.0 0.00 0.00 0.00 29 1024.4
20190317233401 64 96 4.0 8.0 0.00 0.00 0.00 29 1024.4
20190317233301 64 88 0.0 8.0 0.00 0.00 0.00 29 1024.4
20190317233201 64 97 7.0 8.0 0.00 0.00 0.00 29 1024.4
20190317233102 64 125 2.0 2.0 0.00 0.00 0.00 29 1024.4
20190317233004 64 133 0.0 11.0 0.00 0.00 0.00 29 1024.4
20190317232902 64 134 0.0 11.0 0.00 0.00 0.00 28 1024.4
20190317232802 64 122 2.0 11.0 0.00 0.00 0.00 28 1024.0
20190317232701 64 89 7.0 11.0 0.00 0.00 0.00 29 1024.4
20190317232601 64 81 9.0 10.0 0.00 0.00 0.00 29 1024.0
20190317232502 64 60 1.0 10.0 0.00 0.00 0.00 29 1024.4
20190317232401 64 41 3.0 10.0 0.00 0.00 0.00 29 1024.0
20190317232301 64 82 10.0 10.0 0.00 0.00 0.00 28 1024.4
20190317232201 64 93 2.0 4.0 0.00 0.00 0.00 28 1024.0
20190317232101 64 93 0.0 4.0 0.00 0.00 0.00 28 1024.4
20190317232001 64 106 3.0 10.0 0.00 0.00 0.00 28 1024.0
20190317231901 64 54 0.0 10.0 0.00 0.00 0.00 29 1024.4
20190317231804 64 70 3.0 10.0 0.00 0.00 0.00 28 1024.0
20190317231700 64 77 0.0 10.0 0.00 0.00 0.00 27 1024.0
20190317231603 64 92 0.0 10.0 0.00 0.00 0.00 28 1024.0
20190317231501 64 91 4.0 10.0 0.00 0.00 0.00 28 1024.4
20190317231400 64 87 2.0 10.0 0.00 0.00 0.00 29 1024.4
20190317231300 64 121 7.0 10.0 0.00 0.00 0.00 28 1024.4
20190317231200 64 134 6.0 7.0 0.00 0.00 0.00 28 1024.4
20190317231103 64 96 6.0 7.0 0.00 0.00 0.00 28 1024.4
20190317231003 64 110 7.0 7.0 0.00 0.00 0.00 28 1024.4
20190317230901 64 129 4.0 7.0 0.00 0.00 0.00 28 1024.4
20190317230801 64 126 0.0 7.0 0.00 0.00 0.00 28 1024.0
20190317230702 64 139 4.0 7.0 0.00 0.00 0.00 29 1024.0
20190317230601 64 152 4.0 7.0 0.00 0.00 0.00 28 1024.4
20190317230501 64 153 1.0 7.0 0.00 0.00 0.00 28 1024.0
20190317230401 64 67 7.0 7.0 0.00 0.00 0.00 28 1024.4
20190317230300 64 96 3.0 7.0 0.00 0.00 0.00 28 1024.4
20190317230204 64 98 6.0 7.0 0.00 0.00 0.00 28 1024.4
20190317230101 64 113 2.0 7.0 0.00 0.00 0.00 28 1024.0
20190317230005 64 100 4.0 7.0 0.00 0.00 0.00 28 1024.4
20190317225902 64 57 4.0 7.0 0.00 0.00 0.00 28 1024.4
20190317225803 64 41 0.0 7.0 0.00 0.00 0.00 28 1024.4
20190317225700 64 337 0.0 7.0 0.00 0.00 0.00 27 1024.4
20190317225601 64 337 0.0 7.0 0.00 0.00 0.00 27 1024.4
20190317225501 64 337 0.0 7.0 0.00 0.00 0.00 27 1024.4
20190317225401 65 121 0.0 7.0 0.00 0.00 0.00 28 1024.4
20190317225302 65 106 6.0 7.0 0.00 0.00 0.00 28 1024.4
20190317225203 65 64 0.0 4.0 0.00 0.00 0.00 28 1024.4
20190317225101 65 65 0.0 4.0 0.00 0.00 0.00 28 1024.4
20190317225004 65 87 0.0 7.0 0.00 0.00 0.00 28 1024.4
20190317224901 65 70 4.0 7.0 0.00 0.00 0.00 28 1024.4
20190317224804 65 72 3.0 7.0 0.00 0.00 0.00 28 1024.4
20190317224700 64 65 2.0 7.0 0.00 0.00 0.00 28 1024.0
20190317224601 64 82 4.0 6.0 0.00 0.00 0.00 27 1024.0
20190317224501 65 38 0.0 6.0 0.00 0.00 0.00 27 1024.0
20190317224401 65 40 0.0 6.0 0.00 0.00 0.00 27 1024.0
20190317224301 65 25 0.0 6.0 0.00 0.00 0.00 28 1024.0
20190317224201 65 43 3.0 6.0 0.00 0.00 0.00 27 1024.4
20190317224101 65 72 2.0 5.0 0.00 0.00 0.00 27 1024.0
20190317224001 65 102 4.0 8.0 0.00 0.00 0.00 27 1024.0
20190317223902 65 98 6.0 8.0 0.00 0.00 0.00 27 1024.0
20190317223801 65 89 3.0 8.0 0.00 0.00 0.00 27 1024.0
20190317223702 65 78 3.0 8.0 0.00 0.00 0.00 27 1024.4
20190317223601 65 47 3.0 8.0 0.00 0.00 0.00 27 1024.0
20190317223501 65 74 0.0 8.0 0.00 0.00 0.00 27 1024.0
20190317223401 65 106 2.0 8.0 0.00 0.00 0.00 27 1024.4
20190317223301 65 113 3.0 8.0 0.00 0.00 0.00 27 1024.4
20190317223204 65 81 4.0 8.0 0.00 0.00 0.00 27 1024.4
20190317223101 65 92 2.0 7.0 0.00 0.00 0.00 27 1024.4
20190317223001 65 85 3.0 10.0 0.00 0.00 0.00 28 1024.4
20190317222901 65 59 3.0 10.0 0.00 0.00 0.00 27 1024.4
20190317222801 65 50 0.0 10.0 0.00 0.00 0.00 27 1024.4
20190317222701 65 31 6.0 10.0 0.00 0.00 0.00 28 1024.4
20190317222600 65 34 0.0 9.0 0.00 0.00 0.00 28 1024.4
20190317222500 65 29 3.0 9.0 0.00 0.00 0.00 28 1024.4
20190317222401 65 27 6.0 9.0 0.00 0.00 0.00 27 1024.4
20190317222302 65 33 6.0 9.0 0.00 0.00 0.00 27 1024.4
20190317222203 65 6 4.0 9.0 0.00 0.00 0.00 27 1024.4
20190317222102 66 48 9.0 9.0 0.00 0.00 0.00 27 1024.4
20190317222003 66 43 5.0 11.0 0.00 0.00 0.00 27 1024.4
20190317221901 66 67 9.0 9.0 0.00 0.00 0.00 26 1024.4
20190317221801 66 30 0.0 9.0 0.00 0.00 0.00 27 1024.4
20190317221701 66 54 0.0 9.0 0.00 0.00 0.00 27 1024.4
20190317221601 66 48 4.0 9.0 0.00 0.00 0.00 28 1024.4
20190317221500 66 30 0.0 6.0 0.00 0.00 0.00 27 1024.4
20190317221401 66 48 3.0 6.0 0.00 0.00 0.00 27 1024.4
20190317221301 66 28 6.0 6.0 0.00 0.00 0.00 27 1024.4
20190317221201 66 331 0.0 5.0 0.00 0.00 0.00 27 1024.4
20190317221100 66 6 4.0 5.0 0.00 0.00 0.00 26 1024.4
20190317221005 66 76 0.0 8.0 0.00 0.00 0.00 27 1024.4
20190317220900 66 90 0.0 8.0 0.00 0.00 0.00 26 1024.4
20190317220802 66 62 0.0 8.0 0.00 0.00 0.00 27 1024.4
20190317220702 66 4 3.0 8.0 0.00 0.00 0.00 27 1024.4
20190317220602 66 29 4.0 8.0 0.00 0.00 0.00 27 1024.4
20190317220501 66 74 0.0 7.0 0.00 0.00 0.00 27 1024.4
20190317220403 67 74 4.0 7.0 0.00 0.00 0.00 28 1024.4
20190317220301 67 73 4.0 7.0 0.00 0.00 0.00 26 1024.4
20190317220201 67 62 2.0 7.0 0.00 0.00 0.00 26 1024.4
20190317220101 67 103 0.0 6.0 0.00 0.00 0.00 27 1024.4
20190317220004 68 90 6.0 10.0 0.00 0.00 0.00 26 1024.4
20190317215901 68 92 4.0 10.0 0.00 0.00 0.00 27 1024.4
20190317215804 67 80 1.0 10.0 0.00 0.00 0.00 26 1024.4
20190317215701 67 100 3.0 10.0 0.00 0.00 0.00 27 1024.4
20190317215601 67 62 0.0 10.0 0.00 0.00 0.00 27 1024.7
20190317215501 67 56 5.0 10.0 0.00 0.00 0.00 26 1024.7
20190317215400 68 90 8.0 10.0 0.00 0.00 0.00 27 1024.7
20190317215301 68 86 2.0 10.0 0.00 0.00 0.00 27 1024.7
20190317215204 67 107 0.0 10.0 0.00 0.00 0.00 28 1024.7
20190317215101 67 116 2.0 10.0 0.00 0.00 0.00 27 1024.7
20190317215003 67 123 8.0 12.0 0.00 0.00 0.00 27 1024.7
20190317214902 67 97 8.0 10.0 0.00 0.00 0.00 28 1024.7
20190317214803 67 117 0.0 10.0 0.00 0.00 0.00 26 1024.7
20190317214702 67 117 0.0 10.0 0.00 0.00 0.00 26 1024.7
20190317214601 67 133 2.0 10.0 0.00 0.00 0.00 27 1024.7
20190317214501 68 105 0.0 10.0 0.00 0.00 0.00 26 1024.7
20190317214401 68 95 4.0 8.0 0.00 0.00 0.00 26 1024.7
20190317214301 68 76 8.0 8.0 0.00 0.00 0.00 28 1024.7
20190317214201 67 173 4.0 6.0 0.00 0.00 0.00 27 1024.7
20190317214101 67 108 0.0 4.0 0.00 0.00 0.00 27 1024.7
20190317214001 67 81 4.0 8.0 0.00 0.00 0.00 27 1024.7
20190317213901 67 137 2.0 8.0 0.00 0.00 0.00 27 1024.7
20190317213804 67 149 5.0 8.0 0.00 0.00 0.00 27 1024.7
20190317213701 67 140 8.0 8.0 0.00 0.00 0.00 27 1024.7
20190317213600 67 110 4.0 8.0 0.00 0.00 0.00 26 1024.7
20190317213502 67 125 7.0 8.0 0.00 0.00 0.00 28 1024.7
20190317213400 66 65 1.0 5.0 0.00 0.00 0.00 28 1024.7
20190317213301 66 131 0.0 5.0 0.00 0.00 0.00 27 1024.7
20190317213202 66 38 0.0 5.0 0.00 0.00 0.00 27 1024.7
20190317213102 66 29 0.0 5.0 0.00 0.00 0.00 27 1024.7
20190317213001 66 42 0.0 9.0 0.00 0.00 0.00 27 1024.7
20190317212902 67 44 1.0 9.0 0.00 0.00 0.00 27 1024.7
20190317212803 67 33 4.0 9.0 0.00 0.00 0.00 28 1024.7
20190317212702 67 358 3.0 9.0 0.00 0.00 0.00 27 1024.7
20190317212601 67 97 1.0 9.0 0.00 0.00 0.00 26 1024.7
20190317212501 67 137 0.0 9.0 0.00 0.00 0.00 26 1024.7
20190317212401 68 140 0.0 9.0 0.00 0.00 0.00 27 1024.7
20190317212301 68 140 2.0 9.0 0.00 0.00 0.00 29 1024.7
20190317212201 67 119 1.0 9.0 0.00 0.00 0.00 26 1024.7
20190317212101 67 71 7.0 9.0 0.00 0.00 0.00 27 1024.7
20190317212005 67 101 1.0 10.0 0.00 0.00 0.00 28 1024.7
20190317211901 67 208 0.0 10.0 0.00 0.00 0.00 26 1024.7
20190317211801 67 60 0.0 10.0 0.00 0.00 0.00 26 1024.7
20190317211702 67 88 6.0 10.0 0.00 0.00 0.00 28 1024.7
20190317211602 67 128 0.0 10.0 0.00 0.00 0.00 28 1024.7
20190317211502 67 128 0.0 10.0 0.00 0.00 0.00 27 1024.7
20190317211404 67 128 0.0 10.0 0.00 0.00 0.00 25 1024.7
20190317211302 67 128 0.0 10.0 0.00 0.00 0.00 26 1024.7
20190317211201 67 141 2.0 10.0 0.00 0.00 0.00 26 1024.7
20190317211101 67 140 2.0 10.0 0.00 0.00 0.00 26 1024.7
20190317211001 67 104 10.0 10.0 0.00 0.00 0.00 28 1024.7
20190317210901 67 94 0.0 9.0 0.00 0.00 0.00 27 1024.7
20190317210801 67 102 0.0 9.0 0.00 0.00 0.00 28 1024.7
20190317210701 67 102 0.0 9.0 0.00 0.00 0.00 27 1024.7
20190317210601 67 98 4.0 9.0 0.00 0.00 0.00 27 1025.1
20190317210502 67 70 1.0 9.0 0.00 0.00 0.00 27 1024.7
20190317210401 67 101 1.0 9.0 0.00 0.00 0.00 28 1025.1
20190317210301 67 84 2.0 9.0 0.00 0.00 0.00 26 1024.7
20190317210201 67 108 5.0 7.0 0.00 0.00 0.00 27 1025.1
20190317210101 67 117 3.0 3.0 0.00 0.00 0.00 26 1025.1
20190317210005 67 60 2.0 11.0 0.00 0.00 0.00 27 1025.1
20190317205902 67 66 8.0 11.0 0.00 0.00 0.00 27 1024.7
20190317205801 67 116 7.0 11.0 0.00 0.00 0.00 27 1025.1
20190317205702 67 126 5.0 10.0 0.00 0.00 0.00 28 1025.1
20190317205602 66 116 9.0 10.0 0.00 0.00 0.00 26 1025.1
20190317205502 67 35 5.0 10.0 0.00 0.00 0.00 27 1025.1
20190317205403 67 44 3.0 10.0 0.00 0.00 0.00 27 1025.1
20190317205301 67 58 2.0 10.0 0.00 0.00 0.00 26 1025.1
20190317205201 67 59 5.0 10.0 0.00 0.00 0.00 26 1025.1
20190317205101 67 70 3.0 10.0 0.00 0.00 0.00 27 1025.1
20190317205001 67 75 2.0 12.0 0.00 0.00 0.00 26 1025.1
20190317204901 67 92 1.0 11.0 0.00 0.00 0.00 26 1025.1
20190317204800 67 75 5.0 11.0 0.00 0.00 0.00 26 1025.1
20190317204703 67 79 4.0 11.0 0.00 0.00 0.00 25 1025.1
20190317204601 68 68 3.0 11.0 0.00 0.00 0.00 27 1025.1
20190317204500 68 101 3.0 11.0 0.00 0.00 0.00 25 1025.1
20190317204401 69 100 4.0 7.0 0.00 0.00 0.00 25 1025.1
20190317204301 69 157 2.0 7.0 0.00 0.00 0.00 26 1025.1
20190317204203 69 118 3.0 6.0 0.00 0.00 0.00 25 1025.1
20190317204103 69 56 4.0 6.0 0.00 0.00 0.00 26 1025.1
20190317204001 69 102 4.0 9.0 0.00 0.00 0.00 26 1025.1
20190317203901 68 111 4.0 9.0 0.00 0.00 0.00 27 1025.4
20190317203803 68 159 0.0 7.0 0.00 0.00 0.00 26 1025.4
20190317203701 68 46 1.0 7.0 0.00 0.00 0.00 26 1025.4
20190317203604 68 78 0.0 7.0 0.00 0.00 0.00 28 1025.4
20190317203501 67 123 3.0 7.0 0.00 0.00 0.00 29 1025.1
20190317203401 67 162 0.0 7.0 0.00 0.00 0.00 28 1025.4
20190317203301 66 178 5.0 5.0 0.00 0.00 0.00 28 1025.1
20190317203201 66 129 3.0 5.0 0.00 0.00 0.00 27 1025.1
20190317203101 65 207 0.0 1.0 0.00 0.00 0.00 27 1025.4
20190317203003 66 214 1.0 6.0 0.00 0.00 0.00 26 1025.1
20190317202901 66 8 0.0 6.0 0.00 0.00 0.00 25 1025.1
20190317202801 66 8 0.0 6.0 0.00 0.00 0.00 28 1025.1
20190317202700 67 15 0.0 6.0 0.00 0.00 0.00 24 1025.4
20190317202603 68 16 0.0 6.0 0.00 0.00 0.00 25 1025.4
20190317202501 67 16 0.0 6.0 0.00 0.00 0.00 24 1025.1
20190317202403 67 16 0.0 6.0 0.00 0.00 0.00 25 1025.1
20190317202301 66 16 0.0 6.0 0.00 0.00 0.00 27 1025.4
20190317202204 66 26 0.0 6.0 0.00 0.00 0.00 26 1025.4
20190317202101 66 340 0.0 6.0 0.00 0.00 0.00 26 1025.4
20190317202001 66 27 6.0 9.0 0.00 0.00 0.00 25 1025.4
20190317201902 66 22 4.0 9.0 0.00 0.00 0.00 24 1025.4
20190317201801 66 25 5.0 7.0 0.00 0.00 0.00 26 1025.4
20190317201701 66 1 2.0 7.0 0.00 0.00 0.00 25 1025.4
20190317201601 66 46 3.0 6.0 0.00 0.00 0.00 25 1025.4
20190317201501 66 36 0.0 6.0 0.00 0.00 0.00 24 1025.4
20190317201401 66 79 0.0 6.0 0.00 0.00 0.00 26 1025.4
20190317201300 66 82 0.0 6.0 0.00 0.00 0.00 26 1025.7
20190317201200 66 95 6.0 6.0 0.00 0.00 0.00 25 1025.4
20190317201101 66 106 0.0 1.0 0.00 0.00 0.00 26 1025.7
20190317201000 66 162 1.0 9.0 0.00 0.00 0.00 27 1025.7
20190317200901 67 162 0.0 9.0 0.00 0.00 0.00 25 1025.7
20190317200801 67 162 0.0 9.0 0.00 0.00 0.00 26 1025.7
20190317200702 67 131 0.0 9.0 0.00 0.00 0.00 24 1025.7
20190317200603 67 109 7.0 9.0 0.00 0.00 0.00 25 1025.7
20190317200502 67 85 6.0 7.0 0.00 0.00 0.00 25 1025.7
20190317200402 67 133 1.0 7.0 0.00 0.00 0.00 26 1025.7
20190317200301 67 82 1.0 7.0 0.00 0.00 0.00 26 1025.7
20190317200201 68 75 2.0 7.0 0.00 0.00 0.00 25 1025.7
20190317200101 68 72 2.0 5.0 0.00 0.00 0.00 25 1025.7
20190317200001 68 43 4.0 12.0 0.00 0.00 0.00 26 1025.7
20190317195901 67 98 0.0 12.0 0.00 0.00 0.00 25 1025.7
20190317195800 67 42 1.0 12.0 0.00 0.00 0.00 26 1025.7
20190317195701 67 96 0.0 12.0 0.00 0.00 0.00 26 1025.7
20190317195600 66 89 6.0 12.0 0.00 0.00 0.00 26 1025.7
20190317195501 66 69 3.0 12.0 0.00 0.00 0.00 27 1025.7
20190317195400 66 64 7.0 12.0 0.00 0.00 0.00 27 1025.7
20190317195302 66 24 12.0 12.0 0.00 0.00 0.00 25 1025.7
20190317195201 66 35 0.0 2.0 0.00 0.00 0.00 27 1025.7
20190317195101 66 33 2.0 2.0 0.00 0.00 0.00 28 1025.7
20190317195003 66 354 0.0 8.0 0.00 0.00 0.00 26 1026.1
20190317194902 67 15 4.0 8.0 0.00 0.00 0.00 25 1026.1
20190317194801 67 32 3.0 8.0 0.00 0.00 0.00 25 1026.1
20190317194701 67 104 0.0 8.0 0.00 0.00 0.00 27 1026.1
20190317194601 66 61 0.0 8.0 0.00 0.00 0.00 26 1026.1
20190317194503 66 123 5.0 8.0 0.00 0.00 0.00 27 1026.1
20190317194401 66 72 0.0 8.0 0.00 0.00 0.00 25 1026.1
20190317194301 67 71 0.0 8.0 0.00 0.00 0.00 26 1026.1
20190317194201 66 123 8.0 8.0 0.00 0.00 0.00 27 1026.1
20190317194102 67 116 0.0 1.0 0.00 0.00 0.00 27 1026.1
20190317194004 67 174 0.0 13.0 0.00 0.00 0.00 27 1026.1
20190317193901 66 105 2.0 13.0 0.00 0.00 0.00 27 1026.1
20190317193800 66 125 10.0 13.0 0.00 0.00 0.00 28 1026.1
20190317193702 66 125 0.0 13.0 0.00 0.00 0.00 28 1026.1
20190317193603 66 105 4.0 13.0 0.00 0.00 0.00 27 1026.1
20190317193502 66 77 3.0 13.0 0.00 0.00 0.00 28 1026.1
20190317193401 66 90 6.0 13.0 0.00 0.00 0.00 27 1026.1
20190317193301 66 52 0.0 9.0 0.00 0.00 0.00 27 1026.1
20190317193202 66 102 3.0 9.0 0.00 0.00 0.00 28 1026.1
20190317193101 65 96 6.0 6.0 0.00 0.00 0.00 27 1026.4
20190317193001 64 141 2.0 14.0 0.00 0.00 0.00 29 1026.4
20190317192901 64 141 0.0 14.0 0.00 0.00 0.00 26 1026.4
20190317192801 65 141 0.0 14.0 0.00 0.00 0.00 26 1026.4
20190317192701 66 141 0.0 14.0 0.00 0.00 0.00 27 1026.4
20190317192603 66 141 2.0 14.0 0.00 0.00 0.00 28 1026.4
20190317192501 65 92 0.0 14.0 0.00 0.00 0.00 32 1026.4
20190317192401 65 148 2.0 14.0 0.00 0.00 0.00 28 1026.8
20190317192301 64 83 7.0 14.0 0.00 0.00 0.00 30 1026.4
20190317192201 64 194 1.0 4.0 0.00 0.00 0.00 28 1026.8
20190317192102 64 117 0.0 0.0 0.00 0.00 0.00 27 1026.8
20190317192004 64 117 0.0 7.0 0.00 0.00 0.00 29 1026.8
20190317191902 64 135 0.0 7.0 0.00 0.00 0.00 31 1026.8
20190317191803 64 194 0.0 7.0 0.00 0.00 0.00 28 1026.8
20190317191701 63 150 0.0 7.0 0.00 0.00 0.00 29 1026.8
20190317191601 63 150 0.0 7.0 0.00 0.00 0.00 28 1026.8
20190317191501 64 150 0.0 7.0 0.00 0.00 0.00 29 1026.8
20190317191401 64 103 1.0 7.0 0.00 0.00 0.00 27 1026.8
20190317191301 64 46 0.0 7.0 0.00 0.00 0.00 25 1026.8
20190317191201 66 46 0.0 7.0 0.00 0.00 0.00 26 1026.8
20190317191101 66 62 3.0 7.0 0.00 0.00 0.00 27 1027.1
20190317191001 66 65 5.0 11.0 0.00 0.00 0.00 28 1027.1
20190317190901 66 71 3.0 11.0 0.00 0.00 0.00 27 1027.1
20190317190701 66 90 4.0 11.0 0.00 0.00 0.00 26 1027.1
20190317190600 66 100 2.0 9.0 0.00 0.00 0.00 28 1027.1
20190317190501 66 176 0.0 9.0 0.00 0.00 0.00 26 1027.1
20190317190400 66 156 9.0 9.0 0.00 0.00 0.00 27 1027.1
20190317190301 66 94 4.0 8.0 0.00 0.00 0.00 27 1027.1
20190317190201 66 52 4.0 8.0 0.00 0.00 0.00 27 1027.1
20190317190102 66 87 8.0 8.0 0.00 0.00 0.00 30 1027.1
20190317190005 66 113 7.0 7.0 0.00 0.00 0.00 28 1027.1
20190317185901 66 108 3.0 7.0 0.00 0.00 0.00 27 1027.1
20190317185801 66 110 1.0 7.0 0.00 0.00 0.00 28 1027.1
20190317185701 66 137 0.0 7.0 0.00 0.00 0.00 27 1027.1
20190317185602 65 129 7.0 7.0 0.00 0.00 0.00 28 1027.1
20190317185501 65 129 7.0 7.0 0.00 0.00 0.00 28 1027.1
20190317185404 65 120 3.0 7.0 0.00 0.00 0.00 27 1027.1
20190317185301 65 81 0.0 6.0 0.00 0.00 0.00 29 1027.1
20190317185201 65 81 0.0 6.0 0.00 0.00 0.00 29 1027.1
20190317185101 65 93 1.0 5.0 0.00 0.00 0.00 28 1027.1
20190317185001 65 31 1.0 7.0 0.00 0.00 0.00 29 1027.1
20190317184901 65 21 0.0 7.0 0.00 0.00 0.00 30 1027.1
20190317184800 65 25 0.0 7.0 0.00 0.00 0.00 27 1027.1
20190317184702 65 106 0.0 7.0 0.00 0.00 0.00 29 1027.4
20190317184603 65 99 1.0 7.0 0.00 0.00 0.00 28 1027.4
20190317184402 65 92 2.0 7.0 0.00 0.00 0.00 27 1027.4
20190317184301 65 69 3.0 7.0 0.00 0.00 0.00 28 1027.4
20190317184203 64 55 1.0 6.0 0.00 0.00 0.00 29 1027.4
20190317184101 64 51 3.0 6.0 0.00 0.00 0.00 28 1027.4
20190317184001 65 98 0.0 12.0 0.00 0.00 0.00 29 1027.4
20190317183901 64 88 3.0 12.0 0.00 0.00 0.00 28 1027.4
20190317183801 64 99 10.0 12.0 0.00 0.00 0.00 28 1027.4
20190317183701 65 88 0.0 12.0 0.00 0.00 0.00 28 1027.4
20190317183601 65 73 1.0 12.0 0.00 0.00 0.00 27 1027.4
20190317183500 65 80 3.0 11.0 0.00 0.00 0.00 27 1027.4
20190317183401 65 84 11.0 11.0 0.00 0.00 0.00 28 1027.4
20190317183302 65 105 8.0 9.0 0.00 0.00 0.00 27 1027.4
20190317183200 65 104 6.0 9.0 0.00 0.00 0.00 27 1027.4
20190317183102 64 108 7.0 9.0 0.00 0.00 0.00 28 1027.4
20190317183000 64 88 8.0 8.0 0.00 0.00 0.00 28 1027.4
20190317182901 64 42 3.0 8.0 0.00 0.00 0.00 29 1027.4
20190317182702 64 37 1.0 8.0 0.00 0.00 0.00 29 1027.4
20190317182603 64 34 0.0 8.0 0.00 0.00 0.00 28 1027.4
20190317182502 65 349 0.0 8.0 0.00 0.00 0.00 29 1027.8
20190317182401 64 58 2.0 8.0 0.00 0.00 0.00 29 1027.8
20190317182301 64 96 0.0 3.0 0.00 0.00 0.00 27 1027.8
20190317182201 64 52 0.0 3.0 0.00 0.00 0.00 28 1027.8
20190317182101 64 103 2.0 3.0 0.00 0.00 0.00 29 1027.8
20190317182001 64 31 0.0 9.0 0.00 0.00 0.00 28 1027.8
20190317181900 64 17 0.0 9.0 0.00 0.00 0.00 28 1027.8
20190317181801 64 16 0.0 9.0 0.00 0.00 0.00 28 1027.8
20190317181701 64 13 0.0 9.0 0.00 0.00 0.00 27 1027.8
20190317181601 64 123 1.0 9.0 0.00 0.00 0.00 28 1027.8
20190317181501 64 140 0.0 9.0 0.00 0.00 0.00 27 1027.8
20190317181400 64 100 0.0 9.0 0.00 0.00 0.00 28 1027.8
20190317181301 64 127 4.0 9.0 0.00 0.00 0.00 29 1027.8
20190317181202 64 113 0.0 9.0 0.00 0.00 0.00 28 1027.8
20190317181101 64 91 4.0 9.0 0.00 0.00 0.00 27 1027.8
20190317181001 64 102 4.0 13.0 0.00 0.00 0.00 28 1027.8
20190317180901 64 86 9.0 13.0 0.00 0.00 0.00 28 1027.8
20190317180801 64 78 9.0 13.0 0.00 0.00 0.00 27 1028.1
20190317180701 64 79 11.0 13.0 0.00 0.00 0.00 26 1027.8
20190317180603 65 142 2.0 9.0 0.00 0.00 0.00 30 1028.1
20190317180501 65 152 0.0 9.0 0.00 0.00 0.00 29 1028.1
20190317180401 64 203 4.0 9.0 0.00 0.00 0.00 27 1028.1
20190317180301 64 136 9.0 9.0 0.00 0.00 0.00 27 1028.1
20190317180201 64 119 3.0 7.0 0.00 0.00 0.00 28 1028.1
20190317180101 64 151 7.0 7.0 0.00 0.00 0.00 27 1028.1
20190317180000 64 157 4.0 15.0 0.00 0.00 0.00 29 1028.1
20190317175901 63 160 6.0 15.0 0.00 0.00 0.00 28 1028.1
20190317175801 63 174 0.0 15.0 0.00 0.00 0.00 29 1028.1
20190317175702 63 174 0.0 15.0 0.00 0.00 0.00 30 1028.1
20190317175601 63 144 3.0 15.0 0.00 0.00 0.00 29 1028.1
20190317175501 64 101 6.0 15.0 0.00 0.00 0.00 27 1028.1
20190317175401 64 97 10.0 15.0 0.00 0.00 0.00 28 1028.1
20190317175301 64 94 14.0 15.0 0.00 0.00 0.00 29 1028.1
20190317175201 63 128 2.0 5.0 0.00 0.00 0.00 32 1028.1
20190317175101 62 156 3.0 5.0 0.00 0.00 0.00 31 1027.8
20190317175001 62 109 5.0 12.0 0.00 0.00 0.00 28 1027.8
20190317174901 62 70 0.0 12.0 0.00 0.00 0.00 28 1028.1
20190317174801 63 109 0.0 12.0 0.00 0.00 0.00 27 1028.1
20190317174701 63 110 0.0 12.0 0.00 0.00 0.00 30 1027.8
20190317174601 63 110 0.0 12.0 0.00 0.00 0.00 29 1028.1
20190317174501 63 118 4.0 12.0 0.00 0.00 0.00 29 1028.1
20190317174401 63 87 12.0 12.0 0.00 0.00 0.00 30 1027.8
20190317174301 63 110 0.0 5.0 0.00 0.00 0.00 29 1027.8
20190317174200 63 57 0.0 5.0 0.00 0.00 0.00 27 1028.1
20190317174101 63 52 0.0 5.0 0.00 0.00 0.00 30 1028.1
20190317174003 62 83 1.0 13.0 0.00 0.00 0.00 30 1028.1
20190317173901 62 58 8.0 13.0 0.00 0.00 0.00 31 1028.1
20190317173801 62 46 0.0 13.0 0.00 0.00 0.00 29 1028.1
20190317173702 62 35 0.0 13.0 0.00 0.00 0.00 30 1028.1
20190317173604 62 58 4.0 13.0 0.00 0.00 0.00 29 1028.1
20190317173501 62 75 2.0 11.0 0.00 0.00 0.00 30 1028.1
20190317173401 62 58 5.0 11.0 0.00 0.00 0.00 31 1028.1
20190317173301 61 49 3.0 11.0 0.00 0.00 0.00 30 1028.1
20190317173201 61 71 8.0 10.0 0.00 0.00 0.00 31 1028.1
20190317173101 61 104 0.0 10.0 0.00 0.00 0.00 32 1028.1
20190317173001 61 104 2.0 10.0 0.00 0.00 0.00 32 1028.4
20190317172901 61 55 0.0 10.0 0.00 0.00 0.00 31 1028.1
20190317172801 61 64 0.0 10.0 0.00 0.00 0.00 31 1028.1
20190317172700 61 25 4.0 10.0 0.00 0.00 0.00 30 1028.1
20190317172600 61 25 7.0 10.0 0.00 0.00 0.00 30 1028.1
20190317172501 61 66 5.0 10.0 0.00 0.00 0.00 31 1028.4
20190317172403 62 42 5.0 10.0 0.00 0.00 0.00 32 1028.4
20190317172302 62 38 1.0 10.0 0.00 0.00 0.00 31 1028.4
20190317172202 61 50 0.0 10.0 0.00 0.00 0.00 32 1028.4
20190317172101 61 67 3.0 10.0 0.00 0.00 0.00 31 1028.4
20190317172003 61 39 7.0 10.0 0.00 0.00 0.00 31 1028.4
20190317171901 62 58 4.0 9.0 0.00 0.00 0.00 29 1028.4
20190317171801 62 86 0.0 9.0 0.00 0.00 0.00 29 1028.4
20190317171701 62 73 2.0 9.0 0.00 0.00 0.00 30 1028.4
20190317171601 62 75 5.0 9.0 0.00 0.00 0.00 31 1028.8
20190317171501 62 55 0.0 9.0 0.00 0.00 0.00 32 1028.8
20190317171301 62 127 7.0 9.0 0.00 0.00 0.00 32 1028.8
20190317171200 62 94 6.0 8.0 0.00 0.00 0.00 31 1028.8
20190317171101 62 110 7.0 7.0 0.00 0.00 0.00 32 1028.8
20190317171001 62 86 4.0 10.0 0.00 0.00 0.00 33 1028.8
20190317170901 62 110 5.0 10.0 0.00 0.00 0.00 31 1028.8
20190317170801 61 98 3.0 10.0 0.00 0.00 0.00 32 1028.8
20190317170700 61 46 3.0 10.0 0.00 0.00 0.00 33 1028.8
20190317170602 61 92 2.0 10.0 0.00 0.00 0.00 32 1028.8
20190317170502 61 94 3.0 7.0 0.00 0.00 0.00 33 1028.8
20190317170401 61 145 1.0 7.0 0.00 0.00 0.00 32 1028.8
20190317170301 61 146 0.0 7.0 0.00 0.00 0.00 33 1028.8
20190317170201 61 146 3.0 7.0 0.00 0.00 0.00 32 1028.8
20190317170101 61 121 0.0 7.0 0.00 0.00 0.00 33 1028.8
20190317170004 61 121 0.0 10.0 0.00 0.00 0.00 33 1028.8
20190317165901 61 137 5.0 10.0 0.00 0.00 0.00 32 1028.8
20190317165801 61 130 3.0 10.0 0.00 0.00 0.00 34 1028.8
20190317165701 61 90 0.0 10.0 0.00 0.00 0.00 36 1028.8
20190317165601 61 114 2.0 10.0 0.00 0.00 0.00 34 1028.8
20190317165500 60 90 3.0 7.0 0.00 0.00 0.00 34 1028.8
20190317165401 60 28 4.0 7.0 0.00 0.00 0.00 34 1028.8
20190317165301 60 61 4.0 7.0 0.00 0.00 0.00 34 1028.8
20190317165201 60 85 3.0 7.0 0.00 0.00 0.00 33 1028.8
20190317165100 60 72 0.0 7.0 0.00 0.00 0.00 32 1029.1
20190317165001 60 61 4.0 9.0 0.00 0.00 0.00 33 1028.8
20190317164902 61 38 0.0 9.0 0.00 0.00 0.00 33 1029.1
20190317164701 61 45 2.0 9.0 0.00 0.00 0.00 34 1028.8
20190317164601 61 120 3.0 9.0 0.00 0.00 0.00 34 1029.1
20190317164501 61 121 4.0 9.0 0.00 0.00 0.00 38 1028.8
20190317164401 60 155 1.0 9.0 0.00 0.00 0.00 37 1028.8
20190317164301 61 82 0.0 7.0 0.00 0.00 0.00 36 1029.1
20190317164201 60 115 5.0 7.0 0.00 0.00 0.00 38 1029.1
20190317164101 60 106 0.0 7.0 0.00 0.00 0.00 38 1029.1
20190317164001 60 76 7.0 8.0 0.00 0.00 0.00 39 1029.1
20190317163901 60 79 1.0 8.0 0.00 0.00 0.00 38 1029.1
20190317163801 60 81 0.0 8.0 0.00 0.00 0.00 40 1029.1
20190317163701 59 83 0.0 7.0 0.00 0.00 0.00 39 1029.1
20190317163601 59 96 0.0 7.0 0.00 0.00 0.00 38 1029.1
20190317163501 59 108 4.0 4.0 0.00 0.00 0.00 39 1029.1
20190317163400 59 142 1.0 4.0 0.00 0.00 0.00 40 1029.1
20190317163300 59 158 0.0 4.0 0.00 0.00 0.00 38 1029.1
20190317163201 59 81 1.0 4.0 0.00 0.00 0.00 36 1029.1
20190317163101 60 62 1.0 4.0 0.00 0.00 0.00 37 1029.1
20190317163003 60 87 3.0 9.0 0.00 0.00 0.00 36 1029.1
20190317162901 60 114 3.0 9.0 0.00 0.00 0.00 38 1029.1
20190317162801 60 125 9.0 9.0 0.00 0.00 0.00 37 1029.1
20190317162701 60 141 5.0 9.0 0.00 0.00 0.00 39 1029.1
20190317162601 60 142 9.0 9.0 0.00 0.00 0.00 38 1029.1
20190317162501 59 123 5.0 8.0 0.00 0.00 0.00 40 1029.1